Time,TemperatureF,DewpointF,PressureIn,WindDirection,WindDirectionDegrees,WindSpeedMPH,WindSpeedGustMPH,Humidity,HourlyPrecipIn,Conditions,Clouds,dailyrainin,SolarRadiationWatts/m^2,SoftwareType,DateUTC
2013-10-08 00:00:00,54.5,40.0,29.93,SW,232,0.0,0.0,58,0.00,,,0.45,0.00,VWS V14.01,2013-10-08 04:00:00,
2013-10-08 00:01:00,54.4,39.5,29.93,SW,232,0.0,0.0,57,0.00,,CLR,0.00,0.00,VWS V14.01,2013-10-08 04:01:00,
2013-10-08 00:02:00,54.5,40.0,29.93,SW,232,0.0,0.0,58,0.00,,CLR,0.00,0.00,VWS V14.01,2013-10-08 04:02:00,
2013-10-08 00:05:00,54.4,40.4,29.93,SW,232,0.0,0.0,59,0.00,,,0.00,0.00,VWS V14.01,2013-10-08 04:05:00,
2013-10-08 00:07:00,54.2,40.6,29.93,SW,232,0.0,0.0,60,0.00,,CLR,0.00,0.00,VWS V14.01,2013-10-08 04:07:00,
2013-10-08 00:10:00,53.9,41.2,29.93,SW,232,0.0,0.0,62,0.00,,,0.00,0.00,VWS V14.01,2013-10-08 04:10:00,
2013-10-08 00:12:00,53.8,41.5,29.93,SW,232,0.0,0.0,63,0.00,,CLR,0.00,0.00,VWS V14.01,2013-10-08 04:12:00,
2013-10-08 00:15:00,53.5,40.4,29.94,SW,232,0.0,0.0,61,0.00,,,0.00,0.00,VWS V14.01,2013-10-08 04:15:00,
2013-10-08 00:17:00,53.5,40.4,29.94,SW,232,0.0,0.0,61,0.00,,CLR,0.00,0.00,VWS V14.01,2013-10-08 04:17:00,
2013-10-08 00:20:00,53.3,40.6,29.94,SW,232,0.0,0.0,62,0.00,,,0.00,0.00,VWS V14.01,2013-10-08 04:20:00,
2013-10-08 00:22:00,53.3,41.0,29.94,SW,232,0.0,0.0,63,0.00,,CLR,0.00,0.00,VWS V14.01,2013-10-08 04:22:00,
2013-10-08 00:25:00,53.2,40.5,29.94,SW,232,0.0,0.0,62,0.00,,,0.00,0.00,VWS V14.01,2013-10-08 04:25:00,
2013-10-08 00:27:00,53.2,40.1,29.94,SW,232,0.0,0.0,61,0.00,,CLR,0.00,0.00,VWS V14.01,2013-10-08 04:27:00,
2013-10-08 00:30:00,53.2,40.1,29.94,SW,232,0.0,0.0,61,0.00,,,0.00,0.00,VWS V14.01,2013-10-08 04:30:00,
2013-10-08 00:32:00,53.2,40.1,29.94,SW,232,0.0,0.0,61,0.00,,CLR,0.00,0.00,VWS V14.01,2013-10-08 04:32:00,
2013-10-08 00:35:00,53.1,40.4,29.94,SW,232,0.0,2.0,62,0.00,,,0.00,0.00,VWS V14.01,2013-10-08 04:35:00,
2013-10-08 00:37:00,53.1,40.8,29.94,SW,232,0.0,0.0,63,0.00,,CLR,0.00,0.00,VWS V14.01,2013-10-08 04:37:00,
2013-10-08 00:40:00,52.9,40.2,29.94,SW,232,0.0,0.0,62,0.00,,,0.00,0.00,VWS V14.01,2013-10-08 04:40:00,
2013-10-08 00:42:00,52.8,40.2,29.94,SW,232,0.0,0.0,62,0.00,,CLR,0.00,0.00,VWS V14.01,2013-10-08 04:42:00,
2013-10-08 00:45:00,52.8,39.7,29.95,SW,232,0.0,0.0,61,0.00,,,0.00,0.00,VWS V14.01,2013-10-08 04:45:00,
2013-10-08 00:47:00,52.8,39.7,29.95,SW,232,0.0,0.0,61,0.00,,CLR,0.00,0.00,VWS V14.01,2013-10-08 04:47:00,
2013-10-08 00:50:00,52.8,39.7,29.95,SW,232,0.0,0.0,61,0.00,,,0.00,0.00,VWS V14.01,2013-10-08 04:50:00,
2013-10-08 00:52:00,52.6,39.5,29.95,SW,232,0.0,0.0,61,0.00,,CLR,0.00,0.00,VWS V14.01,2013-10-08 04:52:00,
2013-10-08 00:55:00,52.6,39.5,29.95,SW,232,0.0,0.0,61,0.00,,,0.00,0.00,VWS V14.01,2013-10-08 04:55:00,
2013-10-08 00:57:00,52.6,39.5,29.95,SW,232,0.0,0.0,61,0.00,,CLR,0.00,0.00,VWS V14.01,2013-10-08 04:57:00,
2013-10-08 01:00:00,52.5,39.9,29.95,SW,232,0.0,0.0,62,0.00,,,0.00,0.00,VWS V14.01,2013-10-08 05:00:00,
2013-10-08 01:02:00,52.5,39.9,29.95,SW,232,0.0,0.0,62,0.00,,CLR,0.00,0.00,VWS V14.01,2013-10-08 05:02:00,
2013-10-08 01:05:00,52.3,39.7,29.95,SW,232,0.0,0.0,62,0.00,,,0.00,0.00,VWS V14.01,2013-10-08 05:05:00,
2013-10-08 01:07:00,52.3,40.1,29.95,SW,232,0.0,0.0,63,0.00,,CLR,0.00,0.00,VWS V14.01,2013-10-08 05:07:00,
2013-10-08 01:10:00,52.0,41.0,29.95,SW,232,0.0,0.0,66,0.00,,,0.00,0.00,VWS V14.01,2013-10-08 05:10:00,
2013-10-08 01:12:00,51.7,41.1,29.95,SW,232,0.0,0.0,67,0.00,,CLR,0.00,0.00,VWS V14.01,2013-10-08 05:12:00,
2013-10-08 01:15:00,51.3,41.5,29.96,SW,232,0.0,0.0,69,0.00,,,0.00,0.00,VWS V14.01,2013-10-08 05:15:00,
2013-10-08 01:17:00,51.0,41.6,29.96,SW,232,0.0,0.0,70,0.00,,CLR,0.00,0.00,VWS V14.01,2013-10-08 05:17:00,
2013-10-08 01:20:00,50.7,41.7,29.96,SW,232,0.0,0.0,71,0.00,,,0.00,0.00,VWS V14.01,2013-10-08 05:20:00,
2013-10-08 01:22:00,50.4,41.4,29.96,SW,232,0.0,0.0,71,0.00,,CLR,0.00,0.00,VWS V14.01,2013-10-08 05:22:00,
2013-10-08 01:25:00,50.2,41.9,29.96,SW,232,0.0,0.0,73,0.00,,,0.00,0.00,VWS V14.01,2013-10-08 05:25:00,
2013-10-08 01:27:00,49.9,41.6,29.96,SW,232,0.0,0.0,73,0.00,,CLR,0.00,0.00,VWS V14.01,2013-10-08 05:27:00,
2013-10-08 01:30:00,49.6,41.7,29.97,SW,232,0.0,0.0,74,0.00,,,0.00,0.00,VWS V14.01,2013-10-08 05:30:00,
2013-10-08 01:32:00,49.5,41.6,29.97,SW,232,0.0,0.0,74,0.00,,CLR,0.00,0.00,VWS V14.01,2013-10-08 05:32:00,
2013-10-08 01:35:00,49.4,41.8,29.97,SW,232,0.0,0.0,75,0.00,,,0.00,0.00,VWS V14.01,2013-10-08 05:35:00,
2013-10-08 01:37:00,49.2,41.6,29.97,SW,232,0.0,0.0,75,0.00,,CLR,0.00,0.00,VWS V14.01,2013-10-08 05:37:00,
2013-10-08 01:40:00,48.9,41.7,29.97,SW,232,0.0,0.0,76,0.00,,,0.00,0.00,VWS V14.01,2013-10-08 05:40:00,
2013-10-08 01:42:00,48.8,41.6,29.97,SW,232,0.0,0.0,76,0.00,,CLR,0.00,0.00,VWS V14.01,2013-10-08 05:42:00,
2013-10-08 01:45:00,48.6,41.7,29.98,SW,232,0.0,0.0,77,0.00,,,0.00,0.00,VWS V14.01,2013-10-08 05:45:00,
2013-10-08 01:47:00,48.6,41.7,29.98,SW,232,0.0,0.0,77,0.00,,CLR,0.00,0.00,VWS V14.01,2013-10-08 05:47:00,
2013-10-08 01:50:00,48.5,41.6,29.98,SW,232,0.0,0.0,77,0.00,,,0.00,0.00,VWS V14.01,2013-10-08 05:50:00,
2013-10-08 01:52:00,48.3,41.4,29.98,SW,232,0.0,0.0,77,0.00,,CLR,0.00,0.00,VWS V14.01,2013-10-08 05:52:00,
2013-10-08 01:55:00,48.2,41.7,29.98,SW,232,0.0,0.0,78,0.00,,,0.00,0.00,VWS V14.01,2013-10-08 05:55:00,
2013-10-08 01:57:00,48.2,41.7,29.98,SW,232,0.0,0.0,78,0.00,,CLR,0.00,0.00,VWS V14.01,2013-10-08 05:57:00,
2013-10-08 02:00:00,48.0,41.5,29.98,SW,232,0.0,0.0,78,0.00,,,0.00,0.00,VWS V14.01,2013-10-08 06:00:00,
2013-10-08 02:02:00,48.0,41.5,29.98,SW,232,0.0,0.0,78,0.00,,CLR,0.00,0.00,VWS V14.01,2013-10-08 06:02:00,
2013-10-08 02:05:00,47.9,41.4,29.98,SW,232,1.0,2.0,78,0.00,,,0.00,0.00,VWS V14.01,2013-10-08 06:05:00,
2013-10-08 02:07:00,47.9,41.4,29.98,SW,232,0.0,1.0,78,0.00,,CLR,0.00,0.00,VWS V14.01,2013-10-08 06:07:00,
2013-10-08 02:10:00,47.9,41.4,29.98,SW,232,0.0,0.0,78,0.00,,,0.00,0.00,VWS V14.01,2013-10-08 06:10:00,
2013-10-08 02:12:00,47.9,41.4,29.98,SW,232,0.0,0.0,78,0.00,,CLR,0.00,0.00,VWS V14.01,2013-10-08 06:12:00,
2013-10-08 02:15:00,47.7,41.2,29.99,SW,232,0.0,0.0,78,0.00,,,0.00,0.00,VWS V14.01,2013-10-08 06:15:00,
2013-10-08 02:17:00,47.7,41.2,29.99,SW,232,0.0,0.0,78,0.00,,CLR,0.00,0.00,VWS V14.01,2013-10-08 06:17:00,
2013-10-08 02:20:00,50.7,41.7,29.96,SW,232,0.0,0.0,71,0.00,,-RA,0.00,0.00,VWS V14.01,2013-10-08 06:20:00,
2013-10-08 02:22:00,47.7,41.5,29.99,SW,232,0.0,0.0,79,0.00,,CLR,0.00,0.00,VWS V14.01,2013-10-08 06:22:00,
2013-10-08 02:25:00,47.6,41.4,29.99,SW,232,0.0,0.0,79,0.00,,,0.00,0.00,VWS V14.01,2013-10-08 06:25:00,
2013-10-08 02:27:00,47.6,41.4,29.99,SW,232,0.0,0.0,79,0.00,,CLR,0.00,0.00,VWS V14.01,2013-10-08 06:27:00,
2013-10-08 02:30:00,47.6,41.4,29.99,SW,232,0.0,0.0,79,0.00,,,0.00,0.00,VWS V14.01,2013-10-08 06:30:00,
2013-10-08 02:32:00,47.6,41.4,29.99,SW,232,0.0,0.0,79,0.00,,,0.00,0.00,VWS V14.01,2013-10-08 06:32:00,
2013-10-08 02:35:00,49.4,41.8,29.97,SW,232,0.0,0.0,75,0.00,,-RA,0.00,0.00,VWS V14.01,2013-10-08 06:35:00,
2013-10-08 02:37:00,47.6,41.4,29.99,SW,232,0.0,0.0,79,0.00,,,0.00,0.00,VWS V14.01,2013-10-08 06:37:00,
2013-10-08 02:40:00,47.7,41.8,29.99,SW,232,0.0,0.0,80,0.00,,,0.00,0.00,VWS V14.01,2013-10-08 06:40:00,
2013-10-08 02:42:00,47.6,41.8,29.99,SW,232,0.0,0.0,80,0.00,,,0.00,0.00,VWS V14.01,2013-10-08 06:42:00,
2013-10-08 02:45:00,47.6,41.7,29.99,SW,232,0.0,0.0,80,0.00,,,0.00,0.00,VWS V14.01,2013-10-08 06:45:00,
2013-10-08 02:47:00,47.6,41.8,29.99,SW,232,0.0,0.0,80,0.00,,,0.00,0.00,VWS V14.01,2013-10-08 06:47:00,
2013-10-08 02:50:00,47.7,41.8,29.99,SW,232,0.0,0.0,80,0.00,,,0.00,0.00,VWS V14.01,2013-10-08 06:50:00,
2013-10-08 02:52:00,47.7,41.8,29.99,SW,232,0.0,0.0,80,0.00,,,0.00,0.00,VWS V14.01,2013-10-08 06:52:00,
2013-10-08 02:55:00,47.9,42.0,29.99,SW,232,0.0,0.0,80,0.00,,,0.00,0.00,VWS V14.01,2013-10-08 06:55:00,
2013-10-08 02:57:00,47.9,42.0,29.99,SW,232,0.0,0.0,80,0.00,,,0.00,0.00,VWS V14.01,2013-10-08 06:57:00,
2013-10-08 03:00:00,48.0,41.5,29.98,SW,232,0.0,0.0,78,0.00,,-RA,0.00,0.00,VWS V14.01,2013-10-08 07:00:00,
2013-10-08 03:03:00,48.0,41.5,30.00,SW,233,0.0,0.0,78,0.00,,,0.00,0.00,VWS V14.01,2013-10-08 07:03:00,
2013-10-08 03:05:00,47.9,41.4,29.98,SW,232,1.0,2.0,78,0.00,,-RA,0.00,0.00,VWS V14.01,2013-10-08 07:05:00,
2013-10-08 03:08:00,48.2,41.3,30.00,SW,233,0.0,0.0,77,0.00,,,0.00,0.00,VWS V14.01,2013-10-08 07:08:00,
2013-10-08 03:10:00,47.9,41.4,29.98,SW,232,0.0,0.0,78,0.00,,-RA,0.00,0.00,VWS V14.01,2013-10-08 07:10:00,
2013-10-08 03:13:00,48.5,41.0,30.00,SW,233,0.0,0.0,75,0.00,,,0.00,0.00,VWS V14.01,2013-10-08 07:13:00,
2013-10-08 03:15:00,47.7,41.2,29.99,SW,232,0.0,0.0,78,0.00,,-RA,0.00,0.00,VWS V14.01,2013-10-08 07:15:00,
2013-10-08 03:18:00,48.8,40.9,29.99,SW,233,0.0,0.0,74,0.00,,,0.00,0.00,VWS V14.01,2013-10-08 07:18:00,
2013-10-08 03:20:00,47.7,41.5,29.99,SW,232,0.0,0.0,79,0.00,,-RA,0.00,0.00,VWS V14.01,2013-10-08 07:20:00,
2013-10-08 03:23:00,48.8,40.9,29.99,SW,233,0.0,0.0,74,0.00,,,0.00,0.00,VWS V14.01,2013-10-08 07:23:00,
2013-10-08 03:25:00,47.6,41.4,29.99,SW,232,0.0,0.0,79,0.00,,-RA,0.00,0.00,VWS V14.01,2013-10-08 07:25:00,
2013-10-08 03:28:00,48.6,40.7,29.99,SW,233,0.0,0.0,74,0.00,,,0.00,0.00,VWS V14.01,2013-10-08 07:28:00,
2013-10-08 03:30:00,47.6,41.4,29.99,SW,232,0.0,0.0,79,0.00,,-RA,0.00,0.00,VWS V14.01,2013-10-08 07:30:00,
2013-10-08 03:33:00,48.6,40.3,30.01,SW,233,0.0,0.0,73,0.00,,,0.00,0.00,VWS V14.01,2013-10-08 07:33:00,
2013-10-08 03:35:00,47.6,41.4,29.99,SW,232,0.0,0.0,79,0.00,,-RA,0.00,0.00,VWS V14.01,2013-10-08 07:35:00,
2013-10-08 03:38:00,48.6,40.7,30.01,SW,233,0.0,0.0,74,0.00,,,0.00,0.00,VWS V14.01,2013-10-08 07:38:00,
2013-10-08 03:40:00,47.7,41.8,29.99,SW,232,0.0,0.0,80,0.00,,-RA,0.00,0.00,VWS V14.01,2013-10-08 07:40:00,
2013-10-08 03:43:00,48.6,40.7,30.01,SW,233,0.0,0.0,74,0.00,,,0.00,0.00,VWS V14.01,2013-10-08 07:43:00,
2013-10-08 03:45:00,47.6,41.7,29.99,SW,232,0.0,0.0,80,0.00,,-RA,0.00,0.00,VWS V14.01,2013-10-08 07:45:00,
2013-10-08 03:48:00,48.5,40.6,30.00,SW,233,0.0,0.0,74,0.00,,,0.00,0.00,VWS V14.01,2013-10-08 07:48:00,
2013-10-08 03:50:00,47.7,41.8,29.99,SW,232,0.0,0.0,80,0.00,,-RA,0.00,0.00,VWS V14.01,2013-10-08 07:50:00,
2013-10-08 03:53:00,48.3,40.8,30.00,SW,233,0.0,0.0,75,0.00,,,0.00,0.00,VWS V14.01,2013-10-08 07:53:00,
2013-10-08 03:55:00,47.9,42.0,29.99,SW,232,0.0,0.0,80,0.00,,-RA,0.00,0.00,VWS V14.01,2013-10-08 07:55:00,
2013-10-08 03:58:00,48.3,40.8,30.00,SW,224,0.0,0.0,75,0.00,,,0.00,0.00,VWS V14.01,2013-10-08 07:58:00,
2013-10-08 04:00:00,47.9,41.7,30.00,SW,232,0.0,0.0,79,0.00,,-RA,0.00,0.00,VWS V14.01,2013-10-08 08:00:00,
2013-10-08 04:03:00,48.2,41.0,30.01,SW,233,0.0,0.0,76,0.00,,,0.00,0.00,VWS V14.01,2013-10-08 08:03:00,
2013-10-08 04:05:00,48.0,41.5,30.00,SW,233,0.0,0.0,78,0.00,,-RA,0.00,0.00,VWS V14.01,2013-10-08 08:05:00,
2013-10-08 04:08:00,48.0,40.8,30.01,SW,233,0.0,0.0,76,0.00,,,0.00,0.00,VWS V14.01,2013-10-08 08:08:00,
2013-10-08 04:10:00,48.3,41.1,30.00,SW,233,0.0,0.0,76,0.00,,-RA,0.00,0.00,VWS V14.01,2013-10-08 08:10:00,
2013-10-08 04:13:00,47.9,41.0,30.01,SW,233,0.0,0.0,77,0.00,,,0.00,0.00,VWS V14.01,2013-10-08 08:13:00,
2013-10-08 04:15:00,48.6,41.0,29.99,SW,233,0.0,0.0,75,0.00,,-RA,0.00,0.00,VWS V14.01,2013-10-08 08:15:00,
2013-10-08 04:18:00,47.6,41.1,30.02,SW,233,0.0,0.0,78,0.00,,,0.00,0.00,VWS V14.01,2013-10-08 08:18:00,
2013-10-08 04:20:00,48.8,40.9,29.99,SW,233,0.0,0.0,74,0.00,,-RA,0.00,0.00,VWS V14.01,2013-10-08 08:20:00,
2013-10-08 04:23:00,47.3,40.8,30.02,SW,233,0.0,0.0,78,0.00,,,0.00,0.00,VWS V14.01,2013-10-08 08:23:00,
2013-10-08 04:25:00,48.8,40.9,29.99,SW,233,0.0,0.0,74,0.00,,-RA,0.00,0.00,VWS V14.01,2013-10-08 08:25:00,
2013-10-08 04:28:00,47.0,40.5,30.02,SW,233,0.0,0.0,78,0.00,,,0.00,0.00,VWS V14.01,2013-10-08 08:28:00,
2013-10-08 04:30:00,48.6,40.7,30.01,SW,233,0.0,0.0,74,0.00,,-RA,0.00,0.00,VWS V14.01,2013-10-08 08:30:00,
2013-10-08 04:33:00,46.7,40.5,30.03,SW,233,0.0,0.0,79,0.00,,,0.00,0.00,VWS V14.01,2013-10-08 08:33:00,
2013-10-08 04:35:00,48.5,40.2,30.01,SW,233,0.0,0.0,73,0.00,,-RA,0.00,0.00,VWS V14.01,2013-10-08 08:35:00,
2013-10-08 04:38:00,46.5,40.3,30.03,SW,233,0.0,0.0,79,0.00,,,0.00,0.00,VWS V14.01,2013-10-08 08:38:00,
2013-10-08 04:40:00,48.6,40.7,30.01,SW,233,0.0,0.0,74,0.00,,-RA,0.00,0.00,VWS V14.01,2013-10-08 08:40:00,
2013-10-08 04:43:00,46.4,40.6,30.03,SW,233,0.0,0.0,80,0.00,,,0.00,0.00,VWS V14.01,2013-10-08 08:43:00,
2013-10-08 04:45:00,48.5,40.6,30.00,SW,233,0.0,0.0,74,0.00,,-RA,0.00,0.00,VWS V14.01,2013-10-08 08:45:00,
2013-10-08 04:48:00,46.4,40.6,30.04,SW,233,0.0,0.0,80,0.00,,,0.00,0.00,VWS V14.01,2013-10-08 08:48:00,
2013-10-08 04:50:00,48.3,40.8,30.00,SW,233,0.0,0.0,75,0.00,,-RA,0.00,0.00,VWS V14.01,2013-10-08 08:50:00,
2013-10-08 04:53:00,46.4,40.6,30.04,SW,233,0.0,0.0,80,0.00,,,0.00,0.00,VWS V14.01,2013-10-08 08:53:00,
2013-10-08 04:55:00,48.5,41.0,30.00,SW,233,0.0,0.0,75,0.00,,-RA,0.00,0.00,VWS V14.01,2013-10-08 08:55:00,
2013-10-08 04:58:00,46.4,40.9,30.04,SW,233,0.0,3.0,81,0.00,,,0.00,0.00,VWS V14.01,2013-10-08 08:58:00,
2013-10-08 05:00:00,48.3,40.8,30.01,SW,233,0.0,0.0,75,0.00,,-RA,0.00,0.00,VWS V14.01,2013-10-08 09:00:00,
2013-10-08 05:03:00,46.5,40.7,30.05,SW,233,0.0,0.0,80,0.00,,,0.00,0.00,VWS V14.01,2013-10-08 09:03:00,
2013-10-08 05:05:00,48.0,40.8,30.01,SW,233,0.0,0.0,76,0.00,,-RA,0.00,0.00,VWS V14.01,2013-10-08 09:05:00,
2013-10-08 05:08:00,46.7,40.9,30.05,SW,233,0.0,0.0,80,0.00,,,0.00,0.00,VWS V14.01,2013-10-08 09:08:00,
2013-10-08 05:10:00,47.9,40.7,30.01,SW,233,0.0,0.0,76,0.00,,-RA,0.00,0.00,VWS V14.01,2013-10-08 09:10:00,
2013-10-08 05:13:00,46.8,40.6,30.05,SW,233,0.0,0.0,79,0.00,,,0.00,0.00,VWS V14.01,2013-10-08 09:13:00,
2013-10-08 05:15:00,47.7,40.8,30.02,SW,233,0.0,0.0,77,0.00,,-RA,0.00,0.00,VWS V14.01,2013-10-08 09:15:00,
2013-10-08 05:18:00,47.3,40.8,30.05,NW,320,2.0,5.0,78,0.00,,,0.00,0.00,VWS V14.01,2013-10-08 09:18:00,
2013-10-08 05:20:00,47.6,41.1,30.02,SW,233,0.0,0.0,78,0.00,,-RA,0.00,0.00,VWS V14.01,2013-10-08 09:20:00,
2013-10-08 05:23:00,48.0,40.8,30.05,NW,320,0.0,0.0,76,0.00,,,0.00,0.00,VWS V14.01,2013-10-08 09:23:00,
2013-10-08 05:25:00,47.1,40.6,30.02,SW,233,0.0,0.0,78,0.00,,-RA,0.00,0.00,VWS V14.01,2013-10-08 09:25:00,
2013-10-08 05:28:00,48.0,40.1,30.05,NW,320,0.0,0.0,74,0.00,,,0.00,0.00,VWS V14.01,2013-10-08 09:28:00,
2013-10-08 05:30:00,46.8,40.3,30.03,SW,233,0.0,0.0,78,0.00,,-RA,0.00,0.00,VWS V14.01,2013-10-08 09:30:00,
2013-10-08 05:33:00,47.7,40.2,30.06,NW,320,0.0,0.0,75,0.00,,,0.00,0.00,VWS V14.01,2013-10-08 09:33:00,
2013-10-08 05:35:00,46.7,40.5,30.03,SW,233,0.0,0.0,79,0.00,,-RA,0.00,0.00,VWS V14.01,2013-10-08 09:35:00,
2013-10-08 05:38:00,47.7,40.2,30.06,NW,320,0.0,0.0,75,0.00,,,0.00,0.00,VWS V14.01,2013-10-08 09:38:00,
2013-10-08 05:40:00,46.4,40.2,30.03,SW,233,0.0,0.0,79,0.00,,-RA,0.00,0.00,VWS V14.01,2013-10-08 09:40:00,
2013-10-08 05:43:00,47.6,40.1,30.06,NW,320,0.0,0.0,75,0.00,,,0.00,0.00,VWS V14.01,2013-10-08 09:43:00,
2013-10-08 05:45:00,46.5,40.7,30.04,SW,233,0.0,0.0,80,0.00,,-RA,0.00,0.00,VWS V14.01,2013-10-08 09:45:00,
2013-10-08 05:48:00,47.6,40.1,30.07,NW,320,0.0,0.0,75,0.00,,,0.00,0.00,VWS V14.01,2013-10-08 09:48:00,
2013-10-08 05:50:00,46.4,40.6,30.04,SW,233,0.0,0.0,80,0.00,,-RA,0.00,0.00,VWS V14.01,2013-10-08 09:50:00,
2013-10-08 05:53:00,47.4,40.2,30.07,NW,320,0.0,0.0,76,0.00,,,0.00,0.00,VWS V14.01,2013-10-08 09:53:00,
2013-10-08 05:55:00,46.4,40.6,30.04,SW,233,0.0,0.0,80,0.00,,-RA,0.00,0.00,VWS V14.01,2013-10-08 09:55:00,
2013-10-08 05:58:00,47.4,40.2,30.07,NW,320,0.0,0.0,76,0.00,,,0.00,0.00,VWS V14.01,2013-10-08 09:58:00,
2013-10-08 06:00:00,46.5,41.0,30.05,SW,233,0.0,0.0,81,0.00,,-RA,0.00,0.00,VWS V14.01,2013-10-08 10:00:00,
2013-10-08 06:03:00,47.6,40.8,30.07,NW,320,0.0,3.0,77,0.00,,,0.00,0.00,VWS V14.01,2013-10-08 10:03:00,
2013-10-08 06:05:00,46.7,40.9,30.05,SW,234,0.0,2.0,80,0.00,,-RA,0.00,0.00,VWS V14.01,2013-10-08 10:05:00,
2013-10-08 06:08:00,47.9,40.7,30.07,North,4,5.0,5.0,76,0.00,,,0.00,0.00,VWS V14.01,2013-10-08 10:08:00,
2013-10-08 06:10:00,46.7,40.9,30.05,SW,234,0.0,0.0,80,0.00,,-RA,0.00,0.00,VWS V14.01,2013-10-08 10:10:00,
2013-10-08 06:13:00,48.6,41.0,30.07,NNE,14,3.0,6.0,75,0.00,,,0.00,0.00,VWS V14.01,2013-10-08 10:13:00,
2013-10-08 06:15:00,47.0,40.8,30.05,West,271,0.0,4.0,79,0.00,,-RA,0.00,0.00,VWS V14.01,2013-10-08 10:15:00,
2013-10-08 06:18:00,48.9,39.9,30.07,North,356,3.0,8.0,71,0.00,,,0.00,0.00,VWS V14.01,2013-10-08 10:18:00,
2013-10-08 06:20:00,47.6,40.8,30.05,NW,320,2.0,3.0,77,0.00,,-RA,0.00,0.00,VWS V14.01,2013-10-08 10:20:00,
2013-10-08 06:23:00,49.8,40.8,30.07,North,0,7.0,8.0,71,0.00,,,0.00,0.00,VWS V14.01,2013-10-08 10:23:00,
2013-10-08 06:25:00,48.2,40.7,30.05,NW,320,0.0,0.0,75,0.00,,-RA,0.00,0.00,VWS V14.01,2013-10-08 10:25:00,
2013-10-08 06:28:00,49.8,40.0,30.07,North,350,6.0,12.0,69,0.00,,,0.00,0.00,VWS V14.01,2013-10-08 10:28:00,
2013-10-08 06:30:00,47.9,40.0,30.06,NW,320,0.0,0.0,74,0.00,,-RA,0.00,0.00,VWS V14.01,2013-10-08 10:30:00,
2013-10-08 06:33:00,50.1,39.6,30.07,NNW,332,4.0,10.0,67,0.00,,,0.00,0.00,VWS V14.01,2013-10-08 10:33:00,
2013-10-08 06:35:00,47.7,40.2,30.06,NW,320,0.0,0.0,75,0.00,,-RA,0.00,0.00,VWS V14.01,2013-10-08 10:35:00,
2013-10-08 06:38:00,50.2,40.1,30.07,North,350,6.0,10.0,68,0.00,,,0.00,0.00,VWS V14.01,2013-10-08 10:38:00,
2013-10-08 06:40:00,47.6,40.1,30.06,NW,320,0.0,0.0,75,0.00,,-RA,0.00,0.00,VWS V14.01,2013-10-08 10:40:00,
2013-10-08 06:43:00,50.4,39.9,30.07,North,10,8.0,10.0,67,0.00,,,0.00,0.00,VWS V14.01,2013-10-08 10:43:00,
2013-10-08 06:45:00,47.6,40.1,30.07,NW,320,0.0,0.0,75,0.00,,-RA,0.00,0.00,VWS V14.01,2013-10-08 10:45:00,
2013-10-08 06:48:00,50.5,40.3,30.08,North,10,4.0,7.0,68,0.00,,,0.00,0.00,VWS V14.01,2013-10-08 10:48:00,
2013-10-08 06:50:00,47.4,39.9,30.07,NW,320,0.0,0.0,75,0.00,,-RA,0.00,0.00,VWS V14.01,2013-10-08 10:50:00,
2013-10-08 06:53:00,50.5,40.0,30.08,NNE,13,6.0,11.0,67,0.00,,,0.00,0.00,VWS V14.01,2013-10-08 10:53:00,
2013-10-08 06:55:00,47.4,40.2,30.07,NW,320,0.0,0.0,76,0.00,,-RA,0.00,0.00,VWS V14.01,2013-10-08 10:55:00,
2013-10-08 06:58:00,50.7,40.2,30.08,North,6,12.0,12.0,67,0.00,,,0.00,0.00,VWS V14.01,2013-10-08 10:58:00,
2013-10-08 07:00:00,47.4,40.2,30.07,NW,320,0.0,0.0,76,0.00,,-RA,0.00,0.00,VWS V14.01,2013-10-08 11:00:00,
2013-10-08 07:03:00,50.8,40.2,30.08,North,356,3.0,7.0,67,0.00,,,0.00,0.00,VWS V14.01,2013-10-08 11:03:00,
2013-10-08 07:05:00,47.7,40.5,30.07,NW,320,0.0,0.0,76,0.00,,-RA,0.00,0.00,VWS V14.01,2013-10-08 11:05:00,
2013-10-08 07:08:00,50.8,40.2,30.08,NNE,21,5.0,10.0,67,0.00,,,0.00,0.00,VWS V14.01,2013-10-08 11:08:00,
2013-10-08 07:10:00,48.2,41.0,30.07,North,0,5.0,5.0,76,0.00,,-RA,0.00,0.00,VWS V14.01,2013-10-08 11:10:00,
2013-10-08 07:12:00,50.8,40.2,30.08,NNE,21,4.0,6.0,67,0.00,,,0.00,0.00,VWS V14.01,2013-10-08 11:12:00,
2013-10-08 07:15:00,48.9,41.0,30.07,North,4,2.0,5.0,74,0.00,,-RA,0.00,0.00,VWS V14.01,2013-10-08 11:15:00,
2013-10-08 07:17:00,50.5,39.2,30.09,North,356,5.0,8.0,65,0.00,,,0.00,5.00,VWS V14.01,2013-10-08 11:17:00,
2013-10-08 07:20:00,49.4,40.4,30.07,North,11,6.0,8.0,71,0.00,,-RA,0.00,0.00,VWS V14.01,2013-10-08 11:20:00,
2013-10-08 07:22:00,50.5,40.0,30.09,North,0,3.0,6.0,67,0.00,,,0.00,11.00,VWS V14.01,2013-10-08 11:22:00,
2013-10-08 07:25:00,49.8,40.0,30.07,North,0,6.0,10.0,69,0.00,,-RA,0.00,0.00,VWS V14.01,2013-10-08 11:25:00,
2013-10-08 07:27:00,50.7,40.2,30.09,North,0,6.0,7.0,67,0.00,,,0.00,16.00,VWS V14.01,2013-10-08 11:27:00,
2013-10-08 07:30:00,50.1,40.0,30.07,North,8,5.0,8.0,68,0.00,,-RA,0.00,0.00,VWS V14.01,2013-10-08 11:30:00,
2013-10-08 07:32:00,50.7,40.2,30.10,NNE,16,6.0,10.0,67,0.00,,,0.00,18.00,VWS V14.01,2013-10-08 11:32:00,
2013-10-08 07:35:00,50.2,39.7,30.07,North,356,3.0,8.0,67,0.00,,-RA,0.00,0.00,VWS V14.01,2013-10-08 11:35:00,
2013-10-08 07:37:00,50.7,40.5,30.10,NNE,17,7.0,8.0,68,0.00,,,0.00,21.00,VWS V14.01,2013-10-08 11:37:00,
2013-10-08 07:40:00,50.2,39.7,30.07,North,0,6.0,8.0,67,0.00,,-RA,0.00,0.00,VWS V14.01,2013-10-08 11:40:00,
2013-10-08 07:42:00,50.7,40.2,30.10,North,3,5.0,7.0,67,0.00,,,0.00,19.00,VWS V14.01,2013-10-08 11:42:00,
2013-10-08 07:45:00,50.5,40.3,30.08,North,1,5.0,8.0,68,0.00,,-RA,0.00,0.00,VWS V14.01,2013-10-08 11:45:00,
2013-10-08 07:47:00,50.7,40.5,30.11,NNE,16,5.0,7.0,68,0.00,,,0.00,21.00,VWS V14.01,2013-10-08 11:47:00,
2013-10-08 07:50:00,50.5,40.0,30.08,North,4,5.0,8.0,67,0.00,,-RA,0.00,0.00,VWS V14.01,2013-10-08 11:50:00,
2013-10-08 07:52:00,50.7,40.5,30.11,NNE,16,0.0,3.0,68,0.00,,,0.00,23.00,VWS V14.01,2013-10-08 11:52:00,
2013-10-08 07:55:00,50.7,40.2,30.08,North,6,8.0,10.0,67,0.00,,-RA,0.00,0.00,VWS V14.01,2013-10-08 11:55:00,
2013-10-08 07:57:00,50.5,40.0,30.11,NNE,16,7.0,7.0,67,0.00,,,0.00,23.00,VWS V14.01,2013-10-08 11:57:00,
2013-10-08 08:00:00,50.5,39.6,30.08,North,0,6.0,10.0,66,0.00,,-RA,0.00,0.00,VWS V14.01,2013-10-08 12:00:00,
2013-10-08 08:02:00,50.7,40.2,30.12,NNE,16,4.0,6.0,67,0.00,,,0.00,21.00,VWS V14.01,2013-10-08 12:02:00,
2013-10-08 08:05:00,50.8,40.2,30.08,NNE,13,4.0,8.0,67,0.00,,-RA,0.00,0.00,VWS V14.01,2013-10-08 12:05:00,
2013-10-08 08:07:00,50.8,40.2,30.12,North,354,3.0,6.0,67,0.00,,,0.00,21.00,VWS V14.01,2013-10-08 12:07:00,
2013-10-08 08:10:00,50.8,40.2,30.08,NNE,21,5.0,10.0,67,0.00,,-RA,0.00,0.00,VWS V14.01,2013-10-08 12:10:00,
2013-10-08 08:12:00,51.0,40.1,30.12,North,354,2.0,5.0,66,0.00,,,0.00,23.00,VWS V14.01,2013-10-08 12:12:00,
2013-10-08 08:15:00,50.7,39.8,30.09,NNE,21,2.0,3.0,66,0.00,,-RA,0.00,5.00,VWS V14.01,2013-10-08 12:15:00,
2013-10-08 08:17:00,51.1,40.2,30.13,North,354,3.0,5.0,66,0.00,,FEW001,0.00,171.00,VWS V14.01,2013-10-08 12:17:00,
2013-10-08 08:20:00,50.4,39.5,30.09,North,356,2.0,5.0,66,0.00,,-RA,0.00,7.00,VWS V14.01,2013-10-08 12:20:00,
2013-10-08 08:22:00,51.4,40.4,30.13,North,0,3.0,6.0,66,0.00,,FEW001,0.00,174.00,VWS V14.01,2013-10-08 12:22:00,
2013-10-08 08:25:00,50.5,40.0,30.09,North,0,5.0,6.0,67,0.00,,-RA,0.00,11.00,VWS V14.01,2013-10-08 12:25:00,
2013-10-08 08:27:00,51.7,39.9,30.13,NNW,343,5.0,8.0,64,0.00,,FEW001,0.00,194.00,VWS V14.01,2013-10-08 12:27:00,
2013-10-08 08:30:00,50.5,39.6,30.10,North,0,3.0,7.0,66,0.00,,-RA,0.00,16.00,VWS V14.01,2013-10-08 12:30:00,
2013-10-08 08:32:00,52.0,40.6,30.15,North,349,5.0,7.0,65,0.00,,FEW001,0.00,216.00,VWS V14.01,2013-10-08 12:32:00,
2013-10-08 08:35:00,50.7,40.2,30.10,NNE,31,2.0,6.0,67,0.00,,-RA,0.00,21.00,VWS V14.01,2013-10-08 12:35:00,
2013-10-08 08:37:00,52.3,40.9,30.15,North,0,2.0,7.0,65,0.00,,FEW001,0.00,181.00,VWS V14.01,2013-10-08 12:37:00,
2013-10-08 08:40:00,50.7,40.5,30.10,North,0,5.0,6.0,68,0.00,,-RA,0.00,19.00,VWS V14.01,2013-10-08 12:40:00,
2013-10-08 08:42:00,52.5,40.3,30.15,North,359,6.0,7.0,63,0.00,,FEW001,0.00,201.00,VWS V14.01,2013-10-08 12:42:00,
2013-10-08 08:45:00,50.7,40.5,30.11,NNE,23,4.0,7.0,68,0.00,,-RA,0.00,19.00,VWS V14.01,2013-10-08 12:45:00,
2013-10-08 08:47:00,52.6,40.4,30.15,North,352,8.0,9.0,63,0.01,,FEW001,0.01,253.00,VWS V14.01,2013-10-08 12:47:00,
2013-10-08 08:50:00,50.7,40.5,30.11,NNE,16,3.0,7.0,68,0.00,,-RA,0.00,21.00,VWS V14.01,2013-10-08 12:50:00,
2013-10-08 08:52:00,52.9,40.7,30.15,NW,309,7.0,8.0,63,0.01,,FEW001,0.01,274.00,VWS V14.01,2013-10-08 12:52:00,
2013-10-08 08:55:00,50.7,40.2,30.11,NNE,16,4.0,5.0,67,0.00,,-RA,0.00,23.00,VWS V14.01,2013-10-08 12:55:00,
2013-10-08 08:57:00,53.2,41.0,30.15,North,11,11.0,12.0,63,0.01,,FEW001,0.01,290.00,VWS V14.01,2013-10-08 12:57:00,
2013-10-08 09:00:00,50.5,40.0,30.12,NNE,16,5.0,6.0,67,0.00,,-RA,0.00,21.00,VWS V14.01,2013-10-08 13:00:00,
2013-10-08 09:02:00,53.2,40.5,30.15,North,0,3.0,7.0,62,0.01,,CLR,0.01,287.00,VWS V14.01,2013-10-08 13:02:00,
2013-10-08 09:05:00,50.7,40.2,30.12,North,0,5.0,7.0,67,0.00,,-RA,0.00,21.00,VWS V14.01,2013-10-08 13:05:00,
2013-10-08 09:07:00,53.2,40.5,30.15,North,0,5.0,7.0,62,0.01,,CLR,0.01,253.00,VWS V14.01,2013-10-08 13:07:00,
2013-10-08 09:10:00,51.0,40.4,30.12,North,354,0.0,3.0,67,0.00,,-RA,0.00,23.00,VWS V14.01,2013-10-08 13:10:00,
2013-10-08 09:12:00,53.5,41.2,30.15,NNE,14,4.0,7.0,63,0.01,,CLR,0.01,304.00,VWS V14.01,2013-10-08 13:12:00,
2013-10-08 09:15:00,51.0,40.1,30.13,North,354,3.0,5.0,66,0.00,,-RA,0.00,158.00,VWS V14.01,2013-10-08 13:15:00,
2013-10-08 09:17:00,53.5,40.4,30.16,NW,326,3.0,14.0,61,0.01,,CLR,0.01,324.00,VWS V14.01,2013-10-08 13:17:00,
2013-10-08 09:20:00,51.3,40.0,30.13,North,359,5.0,8.0,65,0.00,,-RA,0.00,174.00,VWS V14.01,2013-10-08 13:20:00,
2013-10-08 09:22:00,53.5,40.0,30.16,North,0,7.0,12.0,60,0.01,,CLR,0.01,289.00,VWS V14.01,2013-10-08 13:22:00,
2013-10-08 09:25:00,51.7,40.7,30.13,North,0,3.0,4.0,66,0.00,,-RA,0.00,178.00,VWS V14.01,2013-10-08 13:25:00,
2013-10-08 09:27:00,53.8,40.3,30.16,North,1,5.0,9.0,60,0.01,,CLR,0.01,283.00,VWS V14.01,2013-10-08 13:27:00,
2013-10-08 09:30:00,51.9,40.1,30.15,NNW,340,2.0,3.0,64,0.00,,-RA,0.00,199.00,VWS V14.01,2013-10-08 13:30:00,
2013-10-08 09:32:00,54.1,40.5,30.16,North,4,9.0,14.0,60,0.01,,CLR,0.01,345.00,VWS V14.01,2013-10-08 13:32:00,
2013-10-08 09:35:00,52.0,40.2,30.15,North,350,0.0,5.0,64,0.00,,-RA,0.00,215.00,VWS V14.01,2013-10-08 13:35:00,
2013-10-08 09:37:00,54.2,40.2,30.16,North,8,11.0,14.0,59,0.01,,CLR,0.01,278.00,VWS V14.01,2013-10-08 13:37:00,
2013-10-08 09:40:00,52.5,40.3,30.15,NNW,337,0.0,7.0,63,0.00,,-RA,0.00,201.00,VWS V14.01,2013-10-08 13:40:00,
2013-10-08 09:42:00,54.4,39.5,30.16,North,8,10.0,12.0,57,0.01,,CLR,0.01,375.00,VWS V14.01,2013-10-08 13:42:00,
2013-10-08 09:45:00,52.6,40.4,30.15,North,0,7.0,10.0,63,0.01,,-RA,0.01,220.00,VWS V14.01,2013-10-08 13:45:00,
2013-10-08 09:47:00,54.7,40.2,30.17,North,0,8.0,14.0,58,0.00,,CLR,0.01,310.00,VWS V14.01,2013-10-08 13:47:00,
2013-10-08 09:50:00,52.9,41.1,30.15,North,0,5.0,9.0,64,0.01,,-RA,0.01,267.00,VWS V14.01,2013-10-08 13:50:00,
2013-10-08 09:52:00,54.8,39.9,30.17,North,0,10.0,17.0,57,0.00,,CLR,0.01,271.00,VWS V14.01,2013-10-08 13:52:00,
2013-10-08 09:55:00,52.9,40.7,30.15,North,0,7.0,8.0,63,0.01,,-RA,0.01,282.00,VWS V14.01,2013-10-08 13:55:00,
2013-10-08 09:57:00,54.8,39.0,30.17,North,0,8.0,14.0,55,0.00,,CLR,0.01,454.00,VWS V14.01,2013-10-08 13:57:00,
2013-10-08 10:00:00,53.2,40.5,30.15,NNW,337,5.0,10.0,62,0.01,,-RA,0.01,297.00,VWS V14.01,2013-10-08 14:00:00,
2013-10-08 10:02:00,55.0,39.2,30.17,NNE,14,9.0,13.0,55,0.00,,,0.01,473.00,VWS V14.01,2013-10-08 14:02:00,
2013-10-08 10:05:00,53.2,40.5,30.15,North,354,6.0,7.0,62,0.01,,-RA,0.01,238.00,VWS V14.01,2013-10-08 14:05:00,
2013-10-08 10:07:00,55.3,38.5,30.17,North,0,6.0,12.0,53,0.00,,,0.01,413.00,VWS V14.01,2013-10-08 14:07:00,
2013-10-08 10:10:00,53.5,41.6,30.15,North,0,3.0,11.0,64,0.01,,-RA,0.01,222.00,VWS V14.01,2013-10-08 14:10:00,
2013-10-08 10:12:00,55.6,39.2,30.17,North,3,8.0,14.0,54,0.00,,,0.01,463.00,VWS V14.01,2013-10-08 14:12:00,
2013-10-08 10:15:00,53.6,40.9,30.16,North,0,7.0,10.0,62,0.01,,-RA,0.01,313.00,VWS V14.01,2013-10-08 14:15:00,
2013-10-08 10:17:00,55.4,38.1,30.17,NNE,14,7.0,11.0,52,0.00,,,0.01,514.00,VWS V14.01,2013-10-08 14:17:00,
2013-10-08 10:20:00,53.5,40.0,30.16,North,0,8.0,12.0,60,0.01,,-RA,0.01,354.00,VWS V14.01,2013-10-08 14:20:00,
2013-10-08 10:22:00,55.7,38.8,30.17,NNE,18,18.0,20.0,53,0.00,,,0.01,512.00,VWS V14.01,2013-10-08 14:22:00,
2013-10-08 10:25:00,53.6,40.1,30.16,North,0,9.0,18.0,60,0.01,,-RA,0.01,317.00,VWS V14.01,2013-10-08 14:25:00,
2013-10-08 10:27:00,55.7,38.4,30.17,NNE,13,10.0,16.0,52,0.00,,,0.01,473.00,VWS V14.01,2013-10-08 14:27:00,
2013-10-08 10:30:00,53.9,41.2,30.16,North,7,8.0,11.0,62,0.01,,-RA,0.01,317.00,VWS V14.01,2013-10-08 14:30:00,
2013-10-08 10:32:00,55.9,38.5,30.17,NNE,20,10.0,13.0,52,0.00,,,0.01,465.00,VWS V14.01,2013-10-08 14:32:00,
2013-10-08 10:35:00,54.2,40.2,30.16,North,8,17.0,18.0,59,0.01,,-RA,0.01,255.00,VWS V14.01,2013-10-08 14:35:00,
2013-10-08 10:37:00,56.0,38.6,30.17,North,8,14.0,16.0,52,0.00,,,0.01,538.00,VWS V14.01,2013-10-08 14:37:00,
2013-10-08 10:40:00,54.2,39.3,30.16,NNE,21,12.0,17.0,57,0.01,,-RA,0.01,206.00,VWS V14.01,2013-10-08 14:40:00,
2013-10-08 10:42:00,56.3,37.4,30.17,North,1,10.0,14.0,49,0.00,,,0.01,537.00,VWS V14.01,2013-10-08 14:42:00,
2013-10-08 10:45:00,54.5,39.6,30.17,North,7,14.0,14.0,57,0.01,,-RA,0.01,410.00,VWS V14.01,2013-10-08 14:45:00,
2013-10-08 10:47:00,56.3,36.9,30.17,North,10,12.0,14.0,48,0.00,,,0.01,572.00,VWS V14.01,2013-10-08 14:47:00,
2013-10-08 10:50:00,54.7,39.8,30.17,NNE,16,7.0,12.0,57,0.00,,-RA,0.01,310.00,VWS V14.01,2013-10-08 14:50:00,
2013-10-08 10:52:00,56.5,37.6,30.17,North,0,13.0,22.0,49,0.00,,,0.01,579.00,VWS V14.01,2013-10-08 14:52:00,
2013-10-08 10:55:00,54.7,39.3,30.17,North,6,10.0,19.0,56,0.00,,-RA,0.01,336.00,VWS V14.01,2013-10-08 14:55:00,
2013-10-08 10:57:00,56.6,38.2,30.17,NNE,14,21.0,21.0,50,0.00,,,0.01,581.00,VWS V14.01,2013-10-08 14:57:00,
2013-10-08 11:00:00,54.8,39.0,30.17,North,0,12.0,13.0,55,0.00,,-RA,0.01,443.00,VWS V14.01,2013-10-08 15:00:00,
2013-10-08 11:02:00,56.6,39.2,30.17,North,0,12.0,22.0,52,0.00,,CLR,0.01,579.00,VWS V14.01,2013-10-08 15:02:00,
2013-10-08 11:05:00,55.3,40.3,30.17,North,0,6.0,11.0,57,0.00,,-RA,0.01,405.00,VWS V14.01,2013-10-08 15:05:00,
2013-10-08 11:07:00,56.7,37.8,30.17,North,354,12.0,18.0,49,0.00,,CLR,0.01,561.00,VWS V14.01,2013-10-08 15:07:00,
2013-10-08 11:10:00,55.4,39.5,30.17,North,11,10.0,15.0,55,0.00,,-RA,0.01,450.00,VWS V14.01,2013-10-08 15:10:00,
2013-10-08 11:12:00,56.7,38.8,30.17,NNE,24,10.0,17.0,51,0.00,,CLR,0.01,579.00,VWS V14.01,2013-10-08 15:12:00,
2013-10-08 11:15:00,55.6,39.2,30.17,NNE,28,13.0,18.0,54,0.00,,-RA,0.01,500.00,VWS V14.01,2013-10-08 15:15:00,
2013-10-08 11:17:00,56.9,38.0,30.17,North,8,17.0,21.0,49,0.00,,CLR,0.01,503.00,VWS V14.01,2013-10-08 15:17:00,
2013-10-08 11:20:00,55.6,38.8,30.17,NNE,32,14.0,20.0,53,0.00,,-RA,0.01,516.00,VWS V14.01,2013-10-08 15:20:00,
2013-10-08 11:22:00,57.0,38.0,30.17,North,4,2.0,13.0,49,0.00,,CLR,0.01,619.00,VWS V14.01,2013-10-08 15:22:00,
2013-10-08 11:25:00,55.7,38.8,30.17,NNE,21,21.0,21.0,53,0.00,,-RA,0.01,512.00,VWS V14.01,2013-10-08 15:25:00,
2013-10-08 11:27:00,57.6,38.1,30.17,North,0,9.0,12.0,48,0.00,,CLR,0.01,577.00,VWS V14.01,2013-10-08 15:27:00,
2013-10-08 11:30:00,55.7,36.8,30.17,North,359,7.0,14.0,49,0.00,,-RA,0.01,433.00,VWS V14.01,2013-10-08 15:30:00,
2013-10-08 11:32:00,57.6,38.1,30.17,North,357,11.0,16.0,48,0.00,,CLR,0.01,639.00,VWS V14.01,2013-10-08 15:32:00,
2013-10-08 11:35:00,55.9,38.0,30.17,NNE,20,12.0,17.0,51,0.00,,-RA,0.01,517.00,VWS V14.01,2013-10-08 15:35:00,
2013-10-08 11:37:00,57.5,36.3,30.17,North,0,13.0,17.0,45,0.00,,CLR,0.01,614.00,VWS V14.01,2013-10-08 15:37:00,
2013-10-08 11:40:00,56.2,38.3,30.17,North,3,7.0,12.0,51,0.00,,-RA,0.01,537.00,VWS V14.01,2013-10-08 15:40:00,
2013-10-08 11:42:00,57.6,38.1,30.17,North,6,11.0,17.0,48,0.00,,CLR,0.01,614.00,VWS V14.01,2013-10-08 15:42:00,
2013-10-08 11:45:00,56.3,37.9,30.17,NNW,344,6.0,8.0,50,0.00,,-RA,0.01,572.00,VWS V14.01,2013-10-08 15:45:00,
2013-10-08 11:47:00,57.5,36.9,30.17,North,8,13.0,16.0,46,0.00,,CLR,0.01,355.00,VWS V14.01,2013-10-08 15:47:00,
2013-10-08 11:50:00,56.5,38.1,30.17,North,0,16.0,20.0,50,0.00,,-RA,0.01,577.00,VWS V14.01,2013-10-08 15:50:00,
2013-10-08 11:52:00,57.8,38.8,30.17,NNE,24,7.0,14.0,49,0.00,,CLR,0.01,628.00,VWS V14.01,2013-10-08 15:52:00,
2013-10-08 11:55:00,56.6,39.2,30.17,NNE,13,16.0,16.0,52,0.00,,-RA,0.01,593.00,VWS V14.01,2013-10-08 15:55:00,
2013-10-08 11:57:00,58.3,37.1,30.17,North,0,7.0,7.0,45,0.00,,CLR,0.01,501.00,VWS V14.01,2013-10-08 15:57:00,
2013-10-08 12:00:00,56.6,38.7,30.17,North,357,17.0,21.0,51,0.00,,-RA,0.01,595.00,VWS V14.01,2013-10-08 16:00:00,
2013-10-08 12:02:00,58.4,37.7,30.17,North,357,6.0,14.0,46,0.00,,CLR,0.01,501.00,VWS V14.01,2013-10-08 16:02:00,
2013-10-08 12:05:00,56.6,38.7,30.17,North,7,20.0,22.0,51,0.00,,-RA,0.01,593.00,VWS V14.01,2013-10-08 16:05:00,
2013-10-08 12:07:00,58.4,36.6,30.17,North,354,3.0,5.0,44,0.00,,CLR,0.01,440.00,VWS V14.01,2013-10-08 16:07:00,
2013-10-08 12:10:00,56.9,38.5,30.17,North,7,18.0,20.0,50,0.00,,-RA,0.01,512.00,VWS V14.01,2013-10-08 16:10:00,
2013-10-08 12:12:00,58.7,38.0,30.17,NNE,13,11.0,11.0,46,0.00,,CLR,0.01,479.00,VWS V14.01,2013-10-08 16:12:00,
2013-10-08 12:15:00,56.9,38.0,30.17,North,356,12.0,17.0,49,0.00,,-RA,0.01,579.00,VWS V14.01,2013-10-08 16:15:00,
2013-10-08 12:17:00,58.7,38.0,30.18,North,353,6.0,7.0,46,0.00,,CLR,0.01,442.00,VWS V14.01,2013-10-08 16:17:00,
2013-10-08 12:20:00,57.0,38.0,30.17,NNE,25,14.0,17.0,49,0.00,,-RA,0.01,602.00,VWS V14.01,2013-10-08 16:20:00,
2013-10-08 12:22:00,58.3,37.1,30.18,North,359,7.0,13.0,45,0.00,,CLR,0.01,442.00,VWS V14.01,2013-10-08 16:22:00,
2013-10-08 12:25:00,57.3,38.3,30.17,North,357,7.0,12.0,49,0.00,,-RA,0.01,621.00,VWS V14.01,2013-10-08 16:25:00,
2013-10-08 12:27:00,58.4,36.6,30.18,WNW,294,6.0,11.0,44,0.00,,CLR,0.01,468.00,VWS V14.01,2013-10-08 16:27:00,
2013-10-08 12:30:00,57.6,38.1,30.17,NNE,32,14.0,17.0,48,0.00,,-RA,0.01,639.00,VWS V14.01,2013-10-08 16:30:00,
2013-10-08 12:32:00,58.4,37.7,30.17,NNE,31,8.0,15.0,46,0.00,,CLR,0.01,699.00,VWS V14.01,2013-10-08 16:32:00,
2013-10-08 12:35:00,57.5,36.9,30.17,NNE,20,13.0,17.0,46,0.00,,-RA,0.01,614.00,VWS V14.01,2013-10-08 16:35:00,
2013-10-08 12:37:00,58.4,37.2,30.17,WNW,299,1.0,7.0,45,0.00,,CLR,0.01,625.00,VWS V14.01,2013-10-08 16:37:00,
2013-10-08 12:40:00,57.5,36.9,30.17,North,353,6.0,14.0,46,0.00,,-RA,0.01,614.00,VWS V14.01,2013-10-08 16:40:00,
2013-10-08 12:42:00,59.0,36.0,30.17,North,1,13.0,19.0,42,0.00,,CLR,0.01,523.00,VWS V14.01,2013-10-08 16:42:00,
2013-10-08 12:45:00,57.5,36.9,30.17,North,0,16.0,18.0,46,0.00,,-RA,0.01,614.00,VWS V14.01,2013-10-08 16:45:00,
2013-10-08 12:47:00,58.7,34.5,30.17,North,0,11.0,14.0,40,0.00,,CLR,0.01,602.00,VWS V14.01,2013-10-08 16:47:00,
2013-10-08 12:50:00,57.6,38.6,30.17,North,11,16.0,22.0,49,0.00,,-RA,0.01,593.00,VWS V14.01,2013-10-08 16:50:00,
2013-10-08 12:52:00,58.7,36.9,30.17,NE,42,18.0,18.0,44,0.00,,CLR,0.01,581.00,VWS V14.01,2013-10-08 16:52:00,
2013-10-08 12:55:00,58.0,37.9,30.17,North,1,7.0,11.0,47,0.00,,-RA,0.01,642.00,VWS V14.01,2013-10-08 16:55:00,
2013-10-08 12:57:00,58.7,35.7,30.17,North,0,7.0,13.0,42,0.00,,CLR,0.01,762.00,VWS V14.01,2013-10-08 16:57:00,
2013-10-08 13:00:00,58.4,37.2,30.17,North,0,8.0,12.0,45,0.00,,-RA,0.01,501.00,VWS V14.01,2013-10-08 17:00:00,
2013-10-08 13:02:00,59.0,34.7,30.16,North,0,11.0,13.0,40,0.00,,CLR,0.01,762.00,VWS V14.01,2013-10-08 17:02:00,
2013-10-08 13:05:00,58.4,37.7,30.17,North,0,7.0,9.0,46,0.00,,-RA,0.01,479.00,VWS V14.01,2013-10-08 17:05:00,
2013-10-08 13:07:00,59.3,36.2,30.16,North,0,10.0,18.0,42,0.00,,CLR,0.01,611.00,VWS V14.01,2013-10-08 17:07:00,
2013-10-08 13:10:00,58.6,37.9,30.17,North,0,3.0,6.0,46,0.00,,-RA,0.01,440.00,VWS V14.01,2013-10-08 17:10:00,
2013-10-08 13:12:00,59.3,35.6,30.16,NNW,347,5.0,10.0,41,0.00,,CLR,0.01,720.00,VWS V14.01,2013-10-08 17:12:00,
2013-10-08 13:15:00,58.6,37.9,30.18,NNW,343,2.0,10.0,46,0.00,,-RA,0.01,442.00,VWS V14.01,2013-10-08 17:15:00,
2013-10-08 13:17:00,59.2,35.5,30.16,North,3,6.0,12.0,41,0.00,,CLR,0.01,699.00,VWS V14.01,2013-10-08 17:17:00,
2013-10-08 13:20:00,58.4,36.0,30.18,North,11,14.0,17.0,43,0.00,,-RA,0.01,442.00,VWS V14.01,2013-10-08 17:20:00,
2013-10-08 13:22:00,59.3,36.8,30.16,NNE,18,16.0,16.0,43,0.00,,CLR,0.01,760.00,VWS V14.01,2013-10-08 17:22:00,
2013-10-08 13:25:00,58.4,36.6,30.18,North,0,7.0,14.0,44,0.00,,-RA,0.01,468.00,VWS V14.01,2013-10-08 17:25:00,
2013-10-08 13:27:00,59.3,36.2,30.16,North,6,7.0,13.0,42,0.00,,CLR,0.01,674.00,VWS V14.01,2013-10-08 17:27:00,
2013-10-08 13:30:00,58.7,37.4,30.17,NNE,17,16.0,16.0,45,0.00,,-RA,0.01,713.00,VWS V14.01,2013-10-08 17:30:00,
2013-10-08 13:32:00,59.3,37.4,30.16,NNE,25,14.0,14.0,44,0.00,,CLR,0.01,549.00,VWS V14.01,2013-10-08 17:32:00,
2013-10-08 13:35:00,58.3,36.5,30.17,North,0,10.0,17.0,44,0.00,,-RA,0.01,699.00,VWS V14.01,2013-10-08 17:35:00,
2013-10-08 13:37:00,59.5,37.0,30.16,NNE,14,13.0,18.0,43,0.00,,CLR,0.01,501.00,VWS V14.01,2013-10-08 17:37:00,
2013-10-08 13:40:00,58.9,37.0,30.17,North,0,6.0,11.0,44,0.00,,-RA,0.01,658.00,VWS V14.01,2013-10-08 17:40:00,
2013-10-08 13:42:00,59.5,36.4,30.16,North,6,8.0,14.0,42,0.00,,CLR,0.01,693.00,VWS V14.01,2013-10-08 17:42:00,
2013-10-08 13:45:00,58.7,35.7,30.17,North,0,7.0,14.0,42,0.00,,-RA,0.01,602.00,VWS V14.01,2013-10-08 17:45:00,
2013-10-08 13:47:00,59.6,39.4,30.15,NNE,17,15.0,16.0,47,0.00,,CLR,0.01,655.00,VWS V14.01,2013-10-08 17:47:00,
2013-10-08 13:50:00,58.7,35.1,30.17,NNE,20,13.0,13.0,41,0.00,,-RA,0.01,602.00,VWS V14.01,2013-10-08 17:50:00,
2013-10-08 13:52:00,59.8,38.4,30.15,NE,34,8.0,16.0,45,0.00,,CLR,0.01,669.00,VWS V14.01,2013-10-08 17:52:00,
2013-10-08 13:55:00,58.6,35.0,30.17,North,359,7.0,20.0,41,0.00,,-RA,0.01,788.00,VWS V14.01,2013-10-08 17:55:00,
2013-10-08 13:57:00,60.1,37.0,30.15,NNE,28,11.0,12.0,42,0.00,,CLR,0.01,660.00,VWS V14.01,2013-10-08 17:57:00,
2013-10-08 14:00:00,58.9,34.6,30.16,NW,320,3.0,16.0,40,0.00,,-RA,0.01,762.00,VWS V14.01,2013-10-08 18:00:00,
2013-10-08 14:02:00,59.9,36.2,30.15,NNE,27,3.0,14.0,41,0.00,,CLR,0.01,665.00,VWS V14.01,2013-10-08 18:02:00,
2013-10-08 14:05:00,59.2,36.7,30.16,North,8,12.0,15.0,43,0.00,,-RA,0.01,632.00,VWS V14.01,2013-10-08 18:05:00,
2013-10-08 14:07:00,60.5,36.7,30.15,North,4,11.0,13.0,41,0.00,,CLR,0.01,461.00,VWS V14.01,2013-10-08 18:07:00,
2013-10-08 14:10:00,59.2,34.3,30.16,North,0,11.0,12.0,39,0.00,,-RA,0.01,688.00,VWS V14.01,2013-10-08 18:10:00,
2013-10-08 14:12:00,60.2,37.0,30.15,North,7,7.0,11.0,42,0.00,,CLR,0.01,417.00,VWS V14.01,2013-10-08 18:12:00,
2013-10-08 14:15:00,59.3,35.6,30.16,North,6,11.0,17.0,41,0.00,,-RA,0.01,714.00,VWS V14.01,2013-10-08 18:15:00,
2013-10-08 14:17:00,60.2,36.4,30.15,NW,323,0.0,8.0,41,0.00,,CLR,0.01,596.00,VWS V14.01,2013-10-08 18:17:00,
2013-10-08 14:20:00,58.9,35.3,30.16,North,0,8.0,16.0,41,0.00,,-RA,0.01,758.00,VWS V14.01,2013-10-08 18:20:00,
2013-10-08 14:22:00,60.7,36.9,30.15,North,353,2.0,7.0,41,0.00,,CLR,0.01,501.00,VWS V14.01,2013-10-08 18:22:00,
2013-10-08 14:25:00,59.2,37.3,30.16,North,7,13.0,14.0,44,0.00,,-RA,0.01,739.00,VWS V14.01,2013-10-08 18:25:00,
2013-10-08 14:27:00,61.2,38.0,30.15,NNE,18,8.0,8.0,42,0.00,,CLR,0.01,484.00,VWS V14.01,2013-10-08 18:27:00,
2013-10-08 14:30:00,59.2,36.1,30.16,NNE,16,13.0,14.0,42,0.00,,-RA,0.01,565.00,VWS V14.01,2013-10-08 18:30:00,
2013-10-08 14:32:00,61.0,37.2,30.16,North,0,7.0,12.0,41,0.00,,CLR,0.01,528.00,VWS V14.01,2013-10-08 18:32:00,
2013-10-08 14:35:00,59.3,37.4,30.16,NNE,17,6.0,13.0,44,0.00,,-RA,0.01,501.00,VWS V14.01,2013-10-08 18:35:00,
2013-10-08 14:37:00,61.0,37.8,30.16,NNE,16,8.0,12.0,42,0.00,,CLR,0.01,523.00,VWS V14.01,2013-10-08 18:37:00,
2013-10-08 14:40:00,59.5,36.4,30.16,North,7,12.0,17.0,42,0.00,,-RA,0.01,660.00,VWS V14.01,2013-10-08 18:40:00,
2013-10-08 14:42:00,61.0,37.2,30.16,North,0,7.0,13.0,41,0.00,,CLR,0.01,524.00,VWS V14.01,2013-10-08 18:42:00,
2013-10-08 14:45:00,59.3,36.2,30.15,NNE,13,11.0,13.0,42,0.00,,-RA,0.01,642.00,VWS V14.01,2013-10-08 18:45:00,
2013-10-08 14:47:00,61.0,35.2,30.16,NNE,18,7.0,12.0,38,0.00,,CLR,0.01,454.00,VWS V14.01,2013-10-08 18:47:00,
2013-10-08 14:50:00,59.8,38.4,30.15,North,11,10.0,12.0,45,0.00,,-RA,0.01,626.00,VWS V14.01,2013-10-08 18:50:00,
2013-10-08 14:52:00,61.2,37.3,30.16,North,8,2.0,8.0,41,0.00,,CLR,0.01,387.00,VWS V14.01,2013-10-08 18:52:00,
2013-10-08 14:55:00,59.9,37.4,30.15,North,0,14.0,19.0,43,0.00,,-RA,0.01,637.00,VWS V14.01,2013-10-08 18:55:00,
2013-10-08 14:57:00,61.2,35.4,30.16,North,8,5.0,7.0,38,0.00,,CLR,0.01,380.00,VWS V14.01,2013-10-08 18:57:00,
2013-10-08 15:00:00,60.1,37.5,30.15,NNE,21,13.0,13.0,43,0.00,,-RA,0.01,672.00,VWS V14.01,2013-10-08 19:00:00,
2013-10-08 15:02:00,61.5,37.6,30.16,North,349,1.0,5.0,41,0.00,,CLR,0.01,405.00,VWS V14.01,2013-10-08 19:02:00,
2013-10-08 15:05:00,60.1,37.0,30.15,West,260,5.0,10.0,42,0.00,,-RA,0.01,604.00,VWS V14.01,2013-10-08 19:05:00,
2013-10-08 15:07:00,62.0,36.1,30.16,NNW,332,4.0,8.0,38,0.00,,CLR,0.01,359.00,VWS V14.01,2013-10-08 19:07:00,
2013-10-08 15:10:00,60.4,37.2,30.15,North,3,9.0,14.0,42,0.00,,-RA,0.01,498.00,VWS V14.01,2013-10-08 19:10:00,
2013-10-08 15:12:00,62.0,36.1,30.16,NNW,339,5.0,7.0,38,0.00,,CLR,0.01,366.00,VWS V14.01,2013-10-08 19:12:00,
2013-10-08 15:15:00,60.2,38.8,30.15,NNW,347,3.0,8.0,45,0.00,,-RA,0.01,537.00,VWS V14.01,2013-10-08 19:15:00,
2013-10-08 15:17:00,61.6,34.4,30.16,North,1,7.0,7.0,36,0.00,,CLR,0.01,355.00,VWS V14.01,2013-10-08 19:17:00,
2013-10-08 15:20:00,60.5,37.3,30.15,North,0,8.0,8.0,42,0.00,,-RA,0.01,480.00,VWS V14.01,2013-10-08 19:20:00,
2013-10-08 15:22:00,61.8,34.6,30.16,North,0,6.0,7.0,36,0.00,,CLR,0.01,377.00,VWS V14.01,2013-10-08 19:22:00,
2013-10-08 15:25:00,60.9,36.4,30.15,North,356,6.0,8.0,40,0.00,,-RA,0.01,516.00,VWS V14.01,2013-10-08 19:25:00,
2013-10-08 15:27:00,61.8,33.9,30.16,North,353,0.0,6.0,35,0.00,,CLR,0.01,287.00,VWS V14.01,2013-10-08 19:27:00,
2013-10-08 15:30:00,61.0,36.5,30.16,NNE,27,6.0,13.0,40,0.00,,-RA,0.01,540.00,VWS V14.01,2013-10-08 19:30:00,
2013-10-08 15:32:00,62.0,34.8,30.17,North,354,2.0,2.0,36,0.00,,CLR,0.01,318.00,VWS V14.01,2013-10-08 19:32:00,
2013-10-08 15:35:00,61.0,37.8,30.16,NNE,17,7.0,11.0,42,0.00,,-RA,0.01,526.00,VWS V14.01,2013-10-08 19:35:00,
2013-10-08 15:37:00,62.0,34.8,30.17,North,0,5.0,7.0,36,0.00,,CLR,0.01,308.00,VWS V14.01,2013-10-08 19:37:00,
2013-10-08 15:40:00,61.0,36.5,30.16,NNE,21,6.0,10.0,40,0.00,,-RA,0.01,514.00,VWS V14.01,2013-10-08 19:40:00,
2013-10-08 15:42:00,62.0,34.8,30.17,North,350,4.0,6.0,36,0.00,,CLR,0.01,253.00,VWS V14.01,2013-10-08 19:42:00,
2013-10-08 15:45:00,61.2,36.7,30.16,North,4,11.0,13.0,40,0.00,,-RA,0.01,442.00,VWS V14.01,2013-10-08 19:45:00,
2013-10-08 15:47:00,62.0,36.8,30.17,North,0,1.0,7.0,39,0.00,,CLR,0.01,259.00,VWS V14.01,2013-10-08 19:47:00,
2013-10-08 15:50:00,61.0,37.8,30.16,North,4,5.0,7.0,42,0.00,,-RA,0.01,340.00,VWS V14.01,2013-10-08 19:50:00,
2013-10-08 15:52:00,62.0,34.8,30.17,North,354,6.0,7.0,36,0.00,,CLR,0.01,246.00,VWS V14.01,2013-10-08 19:52:00,
2013-10-08 15:55:00,61.2,35.4,30.16,North,8,5.0,6.0,38,0.00,,-RA,0.01,387.00,VWS V14.01,2013-10-08 19:55:00,
2013-10-08 15:57:00,62.0,36.1,30.17,North,11,8.0,10.0,38,0.00,,CLR,0.01,238.00,VWS V14.01,2013-10-08 19:57:00,
2013-10-08 16:00:00,61.3,35.5,30.16,North,350,2.0,8.0,38,0.00,,-RA,0.01,366.00,VWS V14.01,2013-10-08 20:00:00,
2013-10-08 16:02:00,62.0,37.4,30.16,North,0,2.0,6.0,40,0.00,,CLR,0.01,260.00,VWS V14.01,2013-10-08 20:02:00,
2013-10-08 16:05:00,62.0,36.1,30.16,NNE,14,7.0,7.0,38,0.00,,-RA,0.01,429.00,VWS V14.01,2013-10-08 20:05:00,
2013-10-08 16:07:00,62.1,34.8,30.16,NNE,20,7.0,11.0,36,0.00,,CLR,0.01,232.00,VWS V14.01,2013-10-08 20:07:00,
2013-10-08 16:10:00,62.0,36.1,30.16,North,0,6.0,6.0,38,0.00,,-RA,0.01,384.00,VWS V14.01,2013-10-08 20:10:00,
2013-10-08 16:12:00,62.3,35.0,30.16,NNE,14,8.0,9.0,36,0.00,,CLR,0.01,225.00,VWS V14.01,2013-10-08 20:12:00,
2013-10-08 16:15:00,61.8,34.6,30.16,North,1,5.0,7.0,36,0.00,,-RA,0.01,343.00,VWS V14.01,2013-10-08 20:15:00,
2013-10-08 16:17:00,62.3,35.0,30.17,North,7,2.0,7.0,36,0.00,,CLR,0.01,227.00,VWS V14.01,2013-10-08 20:17:00,
2013-10-08 16:20:00,61.6,35.1,30.16,North,354,6.0,7.0,37,0.00,,-RA,0.01,343.00,VWS V14.01,2013-10-08 20:20:00,
2013-10-08 16:22:00,62.3,35.7,30.17,North,1,5.0,7.0,37,0.00,,CLR,0.01,260.00,VWS V14.01,2013-10-08 20:22:00,
2013-10-08 16:25:00,61.8,34.6,30.16,North,1,4.0,6.0,36,0.00,,-RA,0.01,290.00,VWS V14.01,2013-10-08 20:25:00,
2013-10-08 16:27:00,62.3,34.3,30.17,North,10,4.0,8.0,35,0.00,,CLR,0.01,216.00,VWS V14.01,2013-10-08 20:27:00,
2013-10-08 16:30:00,61.8,34.6,30.17,North,357,3.0,5.0,36,0.00,,-RA,0.01,324.00,VWS V14.01,2013-10-08 20:30:00,
2013-10-08 16:32:00,62.3,33.6,30.16,North,11,7.0,7.0,34,0.00,,CLR,0.01,202.00,VWS V14.01,2013-10-08 20:32:00,
2013-10-08 16:35:00,62.1,36.2,30.17,North,356,2.0,6.0,38,0.00,,-RA,0.01,304.00,VWS V14.01,2013-10-08 20:35:00,
2013-10-08 16:37:00,62.3,35.7,30.16,North,4,5.0,6.0,37,0.00,,CLR,0.01,213.00,VWS V14.01,2013-10-08 20:37:00,
2013-10-08 16:40:00,62.0,34.1,30.17,North,350,2.0,4.0,35,0.00,,-RA,0.01,280.00,VWS V14.01,2013-10-08 20:40:00,
2013-10-08 16:42:00,62.3,34.3,30.16,NNE,16,6.0,8.0,35,0.00,,CLR,0.01,257.00,VWS V14.01,2013-10-08 20:42:00,
2013-10-08 16:45:00,62.0,36.1,30.17,North,0,5.0,7.0,38,0.00,,-RA,0.01,246.00,VWS V14.01,2013-10-08 20:45:00,
2013-10-08 16:47:00,62.3,35.7,30.16,North,0,6.0,6.0,37,0.00,,CLR,0.01,172.00,VWS V14.01,2013-10-08 20:47:00,
2013-10-08 16:50:00,62.0,35.5,30.17,North,0,5.0,8.0,37,0.00,,-RA,0.01,238.00,VWS V14.01,2013-10-08 20:50:00,
2013-10-08 16:52:00,62.3,36.4,30.16,NNE,14,6.0,7.0,38,0.00,,CLR,0.01,172.00,VWS V14.01,2013-10-08 20:52:00,
2013-10-08 16:55:00,62.0,35.5,30.17,North,6,7.0,11.0,37,0.00,,-RA,0.01,250.00,VWS V14.01,2013-10-08 20:55:00,
2013-10-08 16:57:00,62.3,35.0,30.16,North,0,7.0,11.0,36,0.00,,CLR,0.01,218.00,VWS V14.01,2013-10-08 20:57:00,
2013-10-08 17:00:00,62.0,35.5,30.16,North,0,5.0,7.0,37,0.00,,-RA,0.01,262.00,VWS V14.01,2013-10-08 21:00:00,
2013-10-08 17:02:00,62.3,35.7,30.15,North,1,4.0,8.0,37,0.00,,CLR,0.01,197.00,VWS V14.01,2013-10-08 21:02:00,
2013-10-08 17:05:00,62.1,35.5,30.16,North,0,1.0,6.0,37,0.00,,-RA,0.01,253.00,VWS V14.01,2013-10-08 21:05:00,
2013-10-08 17:07:00,62.3,36.4,30.15,NNE,14,7.0,8.0,38,0.00,,CLR,0.01,181.00,VWS V14.01,2013-10-08 21:07:00,
2013-10-08 17:10:00,62.3,37.0,30.16,NNE,14,7.0,7.0,39,0.00,,-RA,0.01,225.00,VWS V14.01,2013-10-08 21:10:00,
2013-10-08 17:12:00,62.3,34.3,30.15,North,6,7.0,7.0,35,0.00,,CLR,0.01,171.00,VWS V14.01,2013-10-08 21:12:00,
2013-10-08 17:15:00,62.3,35.0,30.17,North,7,5.0,7.0,36,0.00,,-RA,0.01,239.00,VWS V14.01,2013-10-08 21:15:00,
2013-10-08 17:17:00,62.3,32.9,30.16,North,4,7.0,7.0,33,0.00,,CLR,0.01,155.00,VWS V14.01,2013-10-08 21:17:00,
2013-10-08 17:20:00,62.3,35.0,30.17,North,0,5.0,8.0,36,0.00,,-RA,0.01,225.00,VWS V14.01,2013-10-08 21:20:00,
2013-10-08 17:22:00,62.3,35.0,30.16,NNE,21,6.0,8.0,36,0.00,,CLR,0.01,125.00,VWS V14.01,2013-10-08 21:22:00,
2013-10-08 17:25:00,62.3,35.0,30.17,NNE,13,7.0,8.0,36,0.00,,-RA,0.01,241.00,VWS V14.01,2013-10-08 21:25:00,
2013-10-08 17:27:00,62.3,35.7,30.16,North,7,3.0,6.0,37,0.00,,CLR,0.01,125.00,VWS V14.01,2013-10-08 21:27:00,
2013-10-08 17:30:00,62.3,34.3,30.16,North,11,6.0,8.0,35,0.00,,-RA,0.01,192.00,VWS V14.01,2013-10-08 21:30:00,
2013-10-08 17:32:00,62.3,35.0,30.16,North,8,6.0,7.0,36,0.00,,CLR,0.01,90.00,VWS V14.01,2013-10-08 21:32:00,
2013-10-08 17:35:00,62.3,34.3,30.16,North,0,5.0,7.0,35,0.00,,-RA,0.01,208.00,VWS V14.01,2013-10-08 21:35:00,
2013-10-08 17:37:00,62.1,36.9,30.16,North,8,2.0,2.0,39,0.00,,CLR,0.01,95.00,VWS V14.01,2013-10-08 21:37:00,
2013-10-08 17:40:00,62.3,34.3,30.16,North,10,6.0,7.0,35,0.00,,-RA,0.01,266.00,VWS V14.01,2013-10-08 21:40:00,
2013-10-08 17:42:00,62.0,37.4,30.16,North,8,2.0,2.0,40,0.00,,CLR,0.01,69.00,VWS V14.01,2013-10-08 21:42:00,
2013-10-08 17:45:00,62.3,36.4,30.16,North,0,6.0,8.0,38,0.00,,-RA,0.01,206.00,VWS V14.01,2013-10-08 21:45:00,
2013-10-08 17:47:00,61.6,37.7,30.17,North,8,0.0,3.0,41,0.00,,CLR,0.01,60.00,VWS V14.01,2013-10-08 21:47:00,
2013-10-08 17:50:00,62.3,34.3,30.16,North,0,5.0,7.0,35,0.00,,-RA,0.01,178.00,VWS V14.01,2013-10-08 21:50:00,
2013-10-08 17:52:00,61.3,36.2,30.17,North,8,0.0,1.0,39,0.00,,CLR,0.01,53.00,VWS V14.01,2013-10-08 21:52:00,
2013-10-08 17:55:00,62.3,35.0,30.16,NNE,13,7.0,8.0,36,0.00,,-RA,0.01,188.00,VWS V14.01,2013-10-08 21:55:00,
2013-10-08 17:57:00,60.7,39.8,30.17,North,8,0.0,0.0,46,0.00,,CLR,0.01,48.00,VWS V14.01,2013-10-08 21:57:00,
2013-10-08 18:00:00,62.3,34.3,30.15,North,1,8.0,10.0,35,0.00,,-RA,0.01,227.00,VWS V14.01,2013-10-08 22:00:00,
2013-10-08 18:02:00,60.2,42.0,30.18,North,8,0.0,0.0,51,0.00,,CLR,0.01,39.00,VWS V14.01,2013-10-08 22:02:00,
2013-10-08 18:05:00,62.4,37.1,30.15,North,0,6.0,7.0,39,0.00,,-RA,0.01,185.00,VWS V14.01,2013-10-08 22:05:00,
2013-10-08 18:07:00,59.5,41.9,30.18,North,8,0.0,0.0,52,0.00,,CLR,0.01,26.00,VWS V14.01,2013-10-08 22:07:00,
2013-10-08 18:10:00,62.3,34.3,30.15,North,6,6.0,8.0,35,0.00,,-RA,0.01,171.00,VWS V14.01,2013-10-08 22:10:00,
2013-10-08 18:12:00,59.0,43.3,30.18,North,8,0.0,0.0,56,0.00,,CLR,0.01,18.00,VWS V14.01,2013-10-08 22:12:00,
2013-10-08 18:15:00,62.3,35.0,30.16,North,0,7.0,7.0,36,0.00,,-RA,0.01,174.00,VWS V14.01,2013-10-08 22:15:00,
2013-10-08 18:17:00,58.7,43.1,30.18,North,8,0.0,0.0,56,0.00,,CLR,0.01,14.00,VWS V14.01,2013-10-08 22:17:00,
2013-10-08 18:20:00,62.3,36.4,30.16,NNE,16,8.0,8.0,38,0.00,,-RA,0.01,134.00,VWS V14.01,2013-10-08 22:20:00,
2013-10-08 18:22:00,58.1,42.5,30.18,North,8,0.0,0.0,56,0.00,,CLR,0.01,5.00,VWS V14.01,2013-10-08 22:22:00,
2013-10-08 18:25:00,62.3,36.4,30.16,North,7,5.0,7.0,38,0.00,,-RA,0.01,120.00,VWS V14.01,2013-10-08 22:25:00,
2013-10-08 18:27:00,57.8,42.2,30.18,North,8,0.0,0.0,56,0.00,,CLR,0.01,0.00,VWS V14.01,2013-10-08 22:27:00,
2013-10-08 18:30:00,62.3,37.7,30.16,North,8,7.0,7.0,40,0.00,,-RA,0.01,95.00,VWS V14.01,2013-10-08 22:30:00,
2013-10-08 18:32:00,57.3,41.8,30.19,North,8,0.0,0.0,56,0.00,,CLR,0.01,0.00,VWS V14.01,2013-10-08 22:32:00,
2013-10-08 18:35:00,62.3,37.0,30.16,North,8,0.0,6.0,39,0.00,,-RA,0.01,84.00,VWS V14.01,2013-10-08 22:35:00,
2013-10-08 18:37:00,57.0,42.8,30.19,North,8,0.0,0.0,59,0.00,,CLR,0.01,0.00,VWS V14.01,2013-10-08 22:37:00,
2013-10-08 18:40:00,62.0,38.0,30.16,North,8,0.0,0.0,41,0.00,,-RA,0.01,77.00,VWS V14.01,2013-10-08 22:40:00,
2013-10-08 18:42:00,56.7,43.0,30.19,North,8,0.0,0.0,60,0.00,,CLR,0.01,0.00,VWS V14.01,2013-10-08 22:42:00,
2013-10-08 18:45:00,61.8,38.5,30.17,North,8,0.0,0.0,42,0.00,,-RA,0.01,62.00,VWS V14.01,2013-10-08 22:45:00,
2013-10-08 18:47:00,56.5,43.2,30.19,North,8,0.0,0.0,61,0.00,,CLR,0.01,0.00,VWS V14.01,2013-10-08 22:47:00,
2013-10-08 18:50:00,61.5,36.3,30.17,North,8,0.0,0.0,39,0.00,,-RA,0.01,53.00,VWS V14.01,2013-10-08 22:50:00,
2013-10-08 18:52:00,56.2,43.4,30.19,North,8,0.0,0.0,62,0.00,,CLR,0.01,0.00,VWS V14.01,2013-10-08 22:52:00,
2013-10-08 18:55:00,60.9,39.4,30.17,North,8,0.0,0.0,45,0.00,,-RA,0.01,51.00,VWS V14.01,2013-10-08 22:55:00,
2013-10-08 18:57:00,55.9,43.5,30.19,North,8,0.0,0.0,63,0.00,,CLR,0.01,0.00,VWS V14.01,2013-10-08 22:57:00,
2013-10-08 19:00:00,60.4,41.7,30.18,North,8,0.0,0.0,50,0.00,,-RA,0.01,40.00,VWS V14.01,2013-10-08 23:00:00,
2013-10-08 19:02:00,55.7,44.1,30.20,North,8,0.0,0.0,65,0.00,,CLR,0.01,0.00,VWS V14.01,2013-10-08 23:02:00,
2013-10-08 19:05:00,59.8,42.7,30.18,North,8,0.0,0.0,53,0.00,,-RA,0.01,26.00,VWS V14.01,2013-10-08 23:05:00,
2013-10-08 19:07:00,55.4,43.8,30.20,North,8,0.0,0.0,65,0.00,,CLR,0.01,0.00,VWS V14.01,2013-10-08 23:07:00,
2013-10-08 19:10:00,59.2,43.1,30.18,North,8,0.0,0.0,55,0.00,,-RA,0.01,18.00,VWS V14.01,2013-10-08 23:10:00,
2013-10-08 19:12:00,55.1,44.0,30.20,North,8,0.0,0.0,66,0.00,,CLR,0.01,0.00,VWS V14.01,2013-10-08 23:12:00,
2013-10-08 19:15:00,58.9,43.2,30.18,North,8,0.0,0.0,56,0.00,,-RA,0.01,14.00,VWS V14.01,2013-10-08 23:15:00,
2013-10-08 19:17:00,55.1,45.1,30.20,North,8,0.0,0.0,69,0.00,,CLR,0.01,0.00,VWS V14.01,2013-10-08 23:17:00,
2013-10-08 19:20:00,58.3,43.2,30.18,North,8,0.0,0.0,57,0.00,,-RA,0.01,9.00,VWS V14.01,2013-10-08 23:20:00,
2013-10-08 19:22:00,54.8,44.8,30.20,North,8,0.0,0.0,69,0.00,,CLR,0.01,0.00,VWS V14.01,2013-10-08 23:22:00,
2013-10-08 19:25:00,57.8,41.8,30.18,North,8,0.0,0.0,55,0.00,,-RA,0.01,5.00,VWS V14.01,2013-10-08 23:25:00,
2013-10-08 19:27:00,54.5,44.9,30.20,North,8,0.0,0.0,70,0.00,,CLR,0.01,0.00,VWS V14.01,2013-10-08 23:27:00,
2013-10-08 19:30:00,57.5,41.9,30.19,North,8,0.0,0.0,56,0.00,,-RA,0.01,0.00,VWS V14.01,2013-10-08 23:30:00,
2013-10-08 19:32:00,54.1,44.2,30.20,North,8,0.0,0.0,69,0.00,,CLR,0.01,0.00,VWS V14.01,2013-10-08 23:32:00,
2013-10-08 19:35:00,57.0,42.4,30.19,North,8,0.0,0.0,58,0.00,,-RA,0.01,0.00,VWS V14.01,2013-10-08 23:35:00,
2013-10-08 19:37:00,53.9,44.3,30.20,North,8,0.0,0.0,70,0.00,,CLR,0.01,0.00,VWS V14.01,2013-10-08 23:37:00,
2013-10-08 19:40:00,57.0,43.7,30.19,North,8,0.0,0.0,61,0.00,,-RA,0.01,0.00,VWS V14.01,2013-10-08 23:40:00,
2013-10-08 19:42:00,53.8,44.6,30.20,North,8,0.0,0.0,71,0.00,,CLR,0.01,0.00,VWS V14.01,2013-10-08 23:42:00,
2013-10-08 19:45:00,56.6,43.3,30.19,North,8,0.0,0.0,61,0.00,,-RA,0.01,0.00,VWS V14.01,2013-10-08 23:45:00,
2013-10-08 19:47:00,53.9,45.5,30.20,North,8,2.0,3.0,73,0.00,,CLR,0.01,0.00,VWS V14.01,2013-10-08 23:47:00,
2013-10-08 19:50:00,56.3,43.5,30.19,North,8,0.0,0.0,62,0.00,,-RA,0.01,0.00,VWS V14.01,2013-10-08 23:50:00,
2013-10-08 19:52:00,53.6,45.5,30.20,North,8,0.0,0.0,74,0.00,,CLR,0.01,0.00,VWS V14.01,2013-10-08 23:52:00,
2013-10-08 19:55:00,56.0,43.6,30.19,North,8,0.0,0.0,63,0.00,,-RA,0.01,0.00,VWS V14.01,2013-10-08 23:55:00,
2013-10-08 19:57:00,53.3,45.2,30.20,North,8,0.0,0.0,74,0.00,,CLR,0.01,0.00,VWS V14.01,2013-10-08 23:57:00,
2013-10-08 20:00:00,55.9,43.9,30.20,North,8,0.0,0.0,64,0.00,,-RA,0.01,0.00,VWS V14.01,2013-10-09 00:00:00,
2013-10-08 20:02:00,52.9,44.8,30.21,North,8,0.0,0.0,74,0.00,,CLR,0.01,0.00,VWS V14.01,2013-10-09 00:02:00,
2013-10-08 20:05:00,55.6,44.0,30.20,North,8,0.0,0.0,65,0.00,,-RA,0.01,0.00,VWS V14.01,2013-10-09 00:05:00,
2013-10-08 20:07:00,52.8,44.8,30.21,North,8,0.0,0.0,74,0.00,,CLR,0.01,0.00,VWS V14.01,2013-10-09 00:07:00,
2013-10-08 20:10:00,55.3,43.8,30.20,North,8,0.0,0.0,65,0.00,,-RA,0.01,0.00,VWS V14.01,2013-10-09 00:10:00,
2013-10-08 20:12:00,52.3,44.3,30.21,North,8,0.0,0.0,74,0.00,,CLR,0.01,0.00,VWS V14.01,2013-10-09 00:12:00,
2013-10-08 20:15:00,55.1,44.3,30.20,North,8,0.0,0.0,67,0.00,,-RA,0.01,0.00,VWS V14.01,2013-10-09 00:15:00,
2013-10-08 20:17:00,52.0,44.0,30.21,North,8,0.0,0.0,74,0.00,,CLR,0.01,0.00,VWS V14.01,2013-10-09 00:17:00,
2013-10-08 20:20:00,55.0,45.0,30.20,North,8,0.0,0.0,69,0.00,,-RA,0.01,0.00,VWS V14.01,2013-10-09 00:20:00,
2013-10-08 20:22:00,51.9,43.9,30.21,North,8,0.0,0.0,74,0.00,,CLR,0.01,0.00,VWS V14.01,2013-10-09 00:22:00,
2013-10-08 20:25:00,54.7,45.1,30.20,North,8,0.0,0.0,70,0.00,,-RA,0.01,0.00,VWS V14.01,2013-10-09 00:25:00,
2013-10-08 20:27:00,51.6,44.0,30.21,North,8,0.0,0.0,75,0.00,,CLR,0.01,0.00,VWS V14.01,2013-10-09 00:27:00,
2013-10-08 20:30:00,54.2,44.3,30.20,North,8,0.0,0.0,69,0.00,,-RA,0.01,0.00,VWS V14.01,2013-10-09 00:30:00,
2013-10-08 20:32:00,51.3,43.7,30.22,North,8,0.0,0.0,75,0.00,,CLR,0.01,0.00,VWS V14.01,2013-10-09 00:32:00,
2013-10-08 20:35:00,53.9,44.3,30.20,North,8,0.0,0.0,70,0.00,,-RA,0.01,0.00,VWS V14.01,2013-10-09 00:35:00,
2013-10-08 20:37:00,51.1,43.5,30.22,North,8,0.0,0.0,75,0.00,,CLR,0.01,0.00,VWS V14.01,2013-10-09 00:37:00,
2013-10-08 20:40:00,53.8,44.6,30.20,North,8,0.0,0.0,71,0.00,,-RA,0.01,0.00,VWS V14.01,2013-10-09 00:40:00,
2013-10-08 20:42:00,51.0,43.7,30.22,North,8,0.0,0.0,76,0.00,,CLR,0.01,0.00,VWS V14.01,2013-10-09 00:42:00,
2013-10-08 20:45:00,53.9,45.5,30.20,North,8,1.0,2.0,73,0.00,,-RA,0.01,0.00,VWS V14.01,2013-10-09 00:45:00,
2013-10-08 20:47:00,50.8,43.5,30.22,North,8,0.0,0.0,76,0.00,,CLR,0.01,0.00,VWS V14.01,2013-10-09 00:47:00,
2013-10-08 20:50:00,53.8,45.4,30.20,North,8,0.0,2.0,73,0.00,,-RA,0.01,0.00,VWS V14.01,2013-10-09 00:50:00,
2013-10-08 20:52:00,50.7,43.8,30.22,North,8,0.0,0.0,77,0.00,,CLR,0.01,0.00,VWS V14.01,2013-10-09 00:52:00,
2013-10-08 20:55:00,53.3,45.2,30.20,North,8,0.0,0.0,74,0.00,,-RA,0.01,0.00,VWS V14.01,2013-10-09 00:55:00,
2013-10-08 20:57:00,50.4,43.5,30.22,North,8,0.0,0.0,77,0.00,,CLR,0.01,0.00,VWS V14.01,2013-10-09 00:57:00,
2013-10-08 21:00:00,53.1,45.0,30.21,North,8,0.0,0.0,74,0.00,,-RA,0.01,0.00,VWS V14.01,2013-10-09 01:00:00,
2013-10-08 21:02:00,50.2,43.3,30.23,North,8,0.0,0.0,77,0.00,,CLR,0.01,0.00,VWS V14.01,2013-10-09 01:02:00,
2013-10-08 21:05:00,52.8,44.8,30.21,North,8,0.0,0.0,74,0.00,,-RA,0.01,0.00,VWS V14.01,2013-10-09 01:05:00,
2013-10-08 21:07:00,50.5,43.9,30.23,North,8,0.0,0.0,78,0.00,,CLR,0.01,0.00,VWS V14.01,2013-10-09 01:07:00,
2013-10-08 21:10:00,52.5,44.5,30.21,North,8,0.0,0.0,74,0.00,,-RA,0.01,0.00,VWS V14.01,2013-10-09 01:10:00,
2013-10-08 21:12:00,50.7,44.1,30.23,North,8,0.0,0.0,78,0.00,,CLR,0.01,0.00,VWS V14.01,2013-10-09 01:12:00,
2013-10-08 21:15:00,52.2,44.2,30.21,North,8,0.0,0.0,74,0.00,,-RA,0.01,0.00,VWS V14.01,2013-10-09 01:15:00,
2013-10-08 21:17:00,50.8,44.2,30.23,North,8,0.0,0.0,78,0.00,,CLR,0.01,0.00,VWS V14.01,2013-10-09 01:17:00,
2013-10-08 21:20:00,52.0,44.0,30.21,North,8,0.0,0.0,74,0.00,,-RA,0.01,0.00,VWS V14.01,2013-10-09 01:20:00,
2013-10-08 21:22:00,51.0,44.7,30.23,North,8,0.0,0.0,79,0.00,,CLR,0.01,0.00,VWS V14.01,2013-10-09 01:22:00,
2013-10-08 21:25:00,51.7,43.7,30.21,North,8,0.0,0.0,74,0.00,,-RA,0.01,0.00,VWS V14.01,2013-10-09 01:25:00,
2013-10-08 21:26:00,50.7,44.1,30.23,North,8,0.0,0.0,78,0.00,,CLR,0.01,0.00,VWS V14.01,2013-10-09 01:26:00,
2013-10-08 21:30:00,51.4,43.8,30.22,North,8,0.0,0.0,75,0.00,,-RA,0.01,0.00,VWS V14.01,2013-10-09 01:30:00,
2013-10-08 21:31:00,50.7,44.1,30.24,North,8,0.0,0.0,78,0.00,,CLR,0.01,0.00,VWS V14.01,2013-10-09 01:31:00,
2013-10-08 21:35:00,51.1,43.5,30.22,North,8,0.0,0.0,75,0.00,,-RA,0.01,0.00,VWS V14.01,2013-10-09 01:35:00,
2013-10-08 21:36:00,50.5,43.9,30.24,North,8,2.0,5.0,78,0.00,,CLR,0.01,0.00,VWS V14.01,2013-10-09 01:36:00,
2013-10-08 21:40:00,51.0,43.7,30.22,North,8,0.0,0.0,76,0.00,,-RA,0.01,0.00,VWS V14.01,2013-10-09 01:40:00,
2013-10-08 21:41:00,50.7,44.1,30.24,North,8,1.0,3.0,78,0.00,,CLR,0.01,0.00,VWS V14.01,2013-10-09 01:41:00,
2013-10-08 21:45:00,50.8,43.5,30.22,North,8,0.0,0.0,76,0.00,,-RA,0.01,0.00,VWS V14.01,2013-10-09 01:45:00,
2013-10-08 21:46:00,50.8,44.2,30.24,North,8,0.0,0.0,78,0.00,,CLR,0.01,0.00,VWS V14.01,2013-10-09 01:46:00,
2013-10-08 21:50:00,50.7,43.8,30.22,North,8,0.0,0.0,77,0.00,,-RA,0.01,0.00,VWS V14.01,2013-10-09 01:50:00,
2013-10-08 21:51:00,50.7,44.1,30.24,North,8,3.0,5.0,78,0.00,,CLR,0.01,0.00,VWS V14.01,2013-10-09 01:51:00,
2013-10-08 21:55:00,50.5,43.6,30.22,North,8,0.0,0.0,77,0.00,,-RA,0.01,0.00,VWS V14.01,2013-10-09 01:55:00,
2013-10-08 21:56:00,50.8,44.2,30.24,North,8,1.0,5.0,78,0.00,,CLR,0.01,0.00,VWS V14.01,2013-10-09 01:56:00,
2013-10-08 22:00:00,50.2,43.3,30.23,North,8,0.0,0.0,77,0.00,,-RA,0.01,0.00,VWS V14.01,2013-10-09 02:00:00,
2013-10-08 22:01:00,50.8,43.9,30.25,North,8,0.0,0.0,77,0.00,,CLR,0.01,0.00,VWS V14.01,2013-10-09 02:01:00,
2013-10-08 22:05:00,50.2,43.6,30.23,North,8,0.0,0.0,78,0.00,,-RA,0.01,0.00,VWS V14.01,2013-10-09 02:05:00,
2013-10-08 22:06:00,50.8,43.9,30.25,North,8,2.0,4.0,77,0.00,,CLR,0.01,0.00,VWS V14.01,2013-10-09 02:06:00,
2013-10-08 22:10:00,50.7,44.1,30.23,North,8,0.0,0.0,78,0.00,,-RA,0.01,0.00,VWS V14.01,2013-10-09 02:10:00,
2013-10-08 22:11:00,51.1,44.2,30.25,North,8,2.0,5.0,77,0.00,,CLR,0.01,0.00,VWS V14.01,2013-10-09 02:11:00,
2013-10-08 22:15:00,50.7,44.1,30.23,North,8,0.0,0.0,78,0.00,,-RA,0.01,0.00,VWS V14.01,2013-10-09 02:15:00,
2013-10-08 22:16:00,51.4,44.4,30.25,North,8,3.0,6.0,77,0.00,,CLR,0.01,0.00,VWS V14.01,2013-10-09 02:16:00,
2013-10-08 22:20:00,51.0,44.7,30.23,North,8,0.0,0.0,79,0.00,,-RA,0.01,0.00,VWS V14.01,2013-10-09 02:20:00,
2013-10-08 22:21:00,51.6,44.6,30.25,North,8,2.0,5.0,77,0.00,,CLR,0.01,0.00,VWS V14.01,2013-10-09 02:21:00,
2013-10-08 22:25:00,50.8,44.2,30.23,North,8,0.0,0.0,78,0.00,,-RA,0.01,0.00,VWS V14.01,2013-10-09 02:25:00,
2013-10-08 22:26:00,51.4,44.1,30.25,North,7,5.0,6.0,76,0.00,,CLR,0.01,0.00,VWS V14.01,2013-10-09 02:26:00,
2013-10-08 22:30:00,50.7,44.1,30.24,North,8,0.0,2.0,78,0.00,,-RA,0.01,0.00,VWS V14.01,2013-10-09 02:30:00,
2013-10-08 22:31:00,51.4,44.1,30.25,North,8,0.0,0.0,76,0.00,,CLR,0.01,0.00,VWS V14.01,2013-10-09 02:31:00,
2013-10-08 22:35:00,50.7,44.1,30.24,North,8,3.0,3.0,78,0.00,,-RA,0.01,0.00,VWS V14.01,2013-10-09 02:35:00,
2013-10-08 22:36:00,51.0,43.4,30.25,North,8,2.0,5.0,75,0.00,,CLR,0.01,0.00,VWS V14.01,2013-10-09 02:36:00,
2013-10-08 22:40:00,50.5,43.9,30.24,North,8,0.0,5.0,78,0.00,,-RA,0.01,0.00,VWS V14.01,2013-10-09 02:40:00,
2013-10-08 22:41:00,51.0,43.7,30.25,North,8,2.0,3.0,76,0.00,,CLR,0.01,0.00,VWS V14.01,2013-10-09 02:41:00,
2013-10-08 22:45:00,50.8,44.2,30.24,North,8,0.0,0.0,78,0.00,,-RA,0.01,0.00,VWS V14.01,2013-10-09 02:45:00,
2013-10-08 22:46:00,51.0,43.7,30.25,North,8,0.0,2.0,76,0.00,,CLR,0.01,0.00,VWS V14.01,2013-10-09 02:46:00,
2013-10-08 22:50:00,50.7,44.1,30.24,North,8,1.0,3.0,78,0.00,,-RA,0.01,0.00,VWS V14.01,2013-10-09 02:50:00,
2013-10-08 22:51:00,50.7,43.4,30.25,North,8,0.0,0.0,76,0.00,,CLR,0.01,0.00,VWS V14.01,2013-10-09 02:51:00,
2013-10-08 22:55:00,50.8,44.2,30.24,North,8,2.0,5.0,78,0.00,,-RA,0.01,0.00,VWS V14.01,2013-10-09 02:55:00,
2013-10-08 22:56:00,50.2,42.9,30.25,North,8,0.0,0.0,76,0.00,,CLR,0.01,0.00,VWS V14.01,2013-10-09 02:56:00,
2013-10-08 23:00:00,50.8,43.9,30.25,North,8,0.0,3.0,77,0.00,,-RA,0.01,0.00,VWS V14.01,2013-10-09 03:00:00,
2013-10-08 23:01:00,50.2,43.3,30.25,North,8,5.0,5.0,77,0.00,,CLR,0.01,0.00,VWS V14.01,2013-10-09 03:01:00,
2013-10-08 23:05:00,50.8,43.9,30.25,North,8,2.0,3.0,77,0.00,,-RA,0.01,0.00,VWS V14.01,2013-10-09 03:05:00,
2013-10-08 23:06:00,50.1,43.2,30.25,North,8,3.0,5.0,77,0.00,,CLR,0.01,0.00,VWS V14.01,2013-10-09 03:06:00,
2013-10-08 23:10:00,51.0,44.0,30.25,North,8,2.0,3.0,77,0.00,,-RA,0.01,0.00,VWS V14.01,2013-10-09 03:10:00,
2013-10-08 23:11:00,50.2,43.6,30.25,North,8,3.0,3.0,78,0.00,,CLR,0.01,0.00,VWS V14.01,2013-10-09 03:11:00,
2013-10-08 23:15:00,51.4,44.4,30.25,North,8,3.0,6.0,77,0.00,,-RA,0.01,0.00,VWS V14.01,2013-10-09 03:15:00,
2013-10-08 23:16:00,50.5,43.6,30.25,North,7,5.0,6.0,77,0.00,,CLR,0.01,0.00,VWS V14.01,2013-10-09 03:16:00,
2013-10-08 23:20:00,51.6,44.6,30.25,North,8,1.0,5.0,77,0.00,,-RA,0.01,0.00,VWS V14.01,2013-10-09 03:20:00,
2013-10-08 23:21:00,50.7,44.1,30.25,North,8,0.0,3.0,78,0.00,,CLR,0.01,0.00,VWS V14.01,2013-10-09 03:21:00,
2013-10-08 23:25:00,51.3,44.0,30.25,North,8,3.0,6.0,76,0.00,,-RA,0.01,0.00,VWS V14.01,2013-10-09 03:25:00,
2013-10-08 23:26:00,50.5,43.6,30.25,North,8,2.0,3.0,77,0.00,,CLR,0.01,0.00,VWS V14.01,2013-10-09 03:26:00,
2013-10-08 23:30:00,51.4,44.1,30.25,North,8,0.0,5.0,76,0.00,,-RA,0.01,0.00,VWS V14.01,2013-10-09 03:30:00,
2013-10-08 23:31:00,50.5,43.2,30.25,North,8,0.0,2.0,76,0.00,,CLR,0.01,0.00,VWS V14.01,2013-10-09 03:31:00,
2013-10-08 23:35:00,51.1,43.8,30.25,North,8,3.0,4.0,76,0.00,,-RA,0.01,0.00,VWS V14.01,2013-10-09 03:35:00,
2013-10-08 23:36:00,50.4,43.1,30.25,North,8,0.0,0.0,76,0.00,,CLR,0.01,0.00,VWS V14.01,2013-10-09 03:36:00,
2013-10-08 23:40:00,50.8,43.2,30.25,North,8,0.0,0.0,75,0.00,,-RA,0.01,0.00,VWS V14.01,2013-10-09 03:40:00,
2013-10-08 23:41:00,50.4,42.8,30.25,North,8,3.0,5.0,75,0.00,,CLR,0.01,0.00,VWS V14.01,2013-10-09 03:41:00,
2013-10-08 23:45:00,51.1,44.2,30.25,North,8,1.0,3.0,77,0.00,,-RA,0.01,0.00,VWS V14.01,2013-10-09 03:45:00,
2013-10-08 23:46:00,50.4,42.8,30.25,North,8,2.0,5.0,75,0.00,,CLR,0.01,0.00,VWS V14.01,2013-10-09 03:46:00,
2013-10-08 23:50:00,50.7,43.4,30.25,North,8,0.0,0.0,76,0.00,,-RA,0.01,0.00,VWS V14.01,2013-10-09 03:50:00,
2013-10-08 23:51:00,50.5,42.5,30.25,North,8,3.0,3.0,74,0.00,,CLR,0.01,0.00,VWS V14.01,2013-10-09 03:51:00,
2013-10-08 23:55:00,50.4,43.1,30.25,North,8,0.0,0.0,76,0.00,,-RA,0.01,0.00,VWS V14.01,2013-10-09 03:55:00,
2013-10-08 23:56:00,50.7,42.7,30.25,North,8,0.0,3.0,74,0.00,,CLR,0.01,0.00,VWS V14.01,2013-10-09 03:56:00,